CW6902 Weather Reports


Display with metric or nautical units.
time (UTC)temp
F
wind
direction
speed
MPH
gust
MPH
rain 1hr
in
rain 24hr
in
rain mn
in
humidity
%
barometer
mb
20260510221000 89 105 2.0 4.0 0.00 0.00 0.00 64 1012.0
20260510220858 89 177 2.0 4.0 0.00 0.00 0.00 64 1011.9
20260510220759 89 177 1.0 4.0 0.00 0.00 0.00 64 1012.0
20260510220657 89 177 1.0 4.0 0.00 0.00 0.00 64 1012.0
20260510220459 89 175 1.0 5.0 0.00 0.00 0.00 64 1012.0
20260510220357 89 174 1.0 5.0 0.00 0.00 0.00 64 1012.0
20260510220256 89 194 2.0 5.0 0.00 0.00 0.00 64 1012.0
20260510220159 89 196 0.0 5.0 0.00 0.00 0.00 64 1012.0
20260510220056 89 196 2.0 5.0 0.00 0.00 0.00 64 1012.0
20260510215958 89 152 3.0 5.0 0.00 0.00 0.00 64 1012.0
20260510215858 89 148 3.0 5.0 0.00 0.00 0.00 64 1012.1
20260510215658 89 96 2.0 4.0 0.00 0.00 0.00 64 1012.2
20260510215359 89 124 0.0 5.0 0.00 0.00 0.00 63 1012.2
20260510215258 89 119 1.0 5.0 0.00 0.00 0.00 64 1012.1
20260510215058 89 112 1.0 5.0 0.00 0.00 0.00 64 1012.2
20260510214859 89 112 2.0 5.0 0.00 0.00 0.00 64 1012.2
20260510214759 89 112 1.0 5.0 0.00 0.00 0.00 64 1012.2
20260510214559 88 201 2.0 5.0 0.00 0.00 0.00 64 1012.2
20260510214459 88 201 1.0 5.0 0.00 0.00 0.00 64 1012.1
20260510214357 88 201 3.0 5.0 0.00 0.00 0.00 64 1012.1
20260510214257 88 200 4.0 5.0 0.00 0.00 0.00 64 1012.1
20260510214157 88 204 1.0 5.0 0.00 0.00 0.00 64 1012.1
20260510214000 88 189 1.0 5.0 0.00 0.00 0.00 64 1012.1
20260510213757 88 171 2.0 5.0 0.00 0.00 0.00 64 1012.1
20260510213656 89 267 0.0 3.0 0.00 0.00 0.00 64 1012.1
20260510213458 89 267 1.0 3.0 0.00 0.00 0.00 63 1012.1
20260510213359 89 267 1.0 5.0 0.00 0.00 0.00 64 1012.2
20260510213258 89 25 1.0 5.0 0.00 0.00 0.00 64 1012.1
20260510213159 89 25 3.0 5.0 0.00 0.00 0.00 63 1012.1
20260510213057 89 132 1.0 5.0 0.00 0.00 0.00 63 1012.1
20260510213000 89 132 0.0 5.0 0.00 0.00 0.00 63 1012.1
20260510212656 89 170 1.0 5.0 0.00 0.00 0.00 63 1012.2
20260510212559 89 175 0.0 5.0 0.00 0.00 0.00 63 1012.1
20260510212456 90 206 2.0 5.0 0.00 0.00 0.00 63 1012.1
20260510212359 90 206 3.0 5.0 0.00 0.00 0.00 63 1012.2
20260510212257 90 206 5.0 5.0 0.00 0.00 0.00 63 1012.2
20260510212159 90 105 2.0 5.0 0.00 0.00 0.00 63 1012.2
20260510212000 90 193 1.0 5.0 0.00 0.00 0.00 63 1012.1
20260510211856 90 193 0.0 5.0 0.00 0.00 0.00 63 1012.1
20260510211659 90 194 1.0 5.0 0.00 0.00 0.00 63 1012.1
20260510211559 90 194 1.0 5.0 0.00 0.00 0.00 63 1012.1
20260510211457 90 194 1.0 5.0 0.00 0.00 0.00 62 1012.0
20260510211359 90 194 2.0 5.0 0.00 0.00 0.00 62 1012.1
20260510211257 90 229 2.0 5.0 0.00 0.00 0.00 63 1012.0
20260510211205 90 179 2.0 5.0 0.00 0.00 0.00 63 1012.0
20260510211058 90 212 0.0 5.0 0.00 0.00 0.00 63 1012.1
20260510210856 90 212 1.0 5.0 0.00 0.00 0.00 63 1012.1
20260510210759 90 214 1.0 5.0 0.00 0.00 0.00 63 1012.1
20260510210658 90 214 3.0 5.0 0.00 0.00 0.00 63 1012.1
20260510210557 90 222 2.0 5.0 0.00 0.00 0.00 63 1012.0
20260510210457 90 227 1.0 5.0 0.00 0.00 0.00 62 1012.0
20260510210359 90 231 5.0 5.0 0.00 0.00 0.00 62 1012.0
20260510210256 90 202 1.0 5.0 0.00 0.00 0.00 62 1012.0
20260510210157 90 203 1.0 5.0 0.00 0.00 0.00 62 1012.0
20260510210058 90 203 1.0 5.0 0.00 0.00 0.00 62 1012.0
20260510210004 90 203 2.0 5.0 0.00 0.00 0.00 62 1012.0
20260510205757 91 208 3.0 5.0 0.00 0.00 0.00 61 1012.0
20260510205559 91 161 2.0 6.0 0.00 0.00 0.00 61 1012.0
20260510205457 91 162 1.0 6.0 0.00 0.00 0.00 61 1011.9
20260510205358 92 215 3.0 6.0 0.00 0.00 0.00 61 1012.0
20260510205258 92 177 1.0 6.0 0.00 0.00 0.00 61 1012.0
20260510205157 92 177 2.0 6.0 0.00 0.00 0.00 60 1011.9
20260510205058 92 178 2.0 6.0 0.00 0.00 0.00 60 1011.9
20260510204958 92 177 0.0 6.0 0.00 0.00 0.00 60 1011.9
20260510204858 92 102 2.0 6.0 0.00 0.00 0.00 60 1011.9
20260510204800 92 148 2.0 5.0 0.00 0.00 0.00 60 1011.8
20260510204559 92 189 0.0 5.0 0.00 0.00 0.00 60 1011.9
20260510204459 92 189 2.0 5.0 0.00 0.00 0.00 60 1011.8
20260510204258 92 188 2.0 5.0 0.00 0.00 0.00 60 1011.8
20260510204159 92 192 3.0 5.0 0.00 0.00 0.00 60 1011.8
20260510204058 92 176 0.0 5.0 0.00 0.00 0.00 60 1011.8
20260510204000 92 144 3.0 5.0 0.00 0.00 0.00 60 1011.8
20260510203759 92 137 1.0 5.0 0.00 0.00 0.00 60 1011.7
20260510203658 92 137 2.0 5.0 0.00 0.00 0.00 60 1011.7
20260510203458 92 130 1.0 5.0 0.00 0.00 0.00 60 1011.7
20260510203357 92 130 2.0 5.0 0.00 0.00 0.00 59 1011.8
20260510203258 93 180 2.0 5.0 0.00 0.00 0.00 59 1011.7
20260510203000 93 221 1.0 5.0 0.00 0.00 0.00 58 1011.7
20260510202856 93 222 0.0 5.0 0.00 0.00 0.00 58 1011.8
20260510202759 93 225 2.0 5.0 0.00 0.00 0.00 59 1011.8
20260510202600 93 240 0.0 5.0 0.00 0.00 0.00 59 1011.8
20260510202357 93 66 1.0 8.0 0.00 0.00 0.00 59 1011.7
20260510202258 93 65 2.0 8.0 0.00 0.00 0.00 58 1011.8
20260510202158 93 97 3.0 8.0 0.00 0.00 0.00 58 1011.7
20260510202058 93 90 3.0 8.0 0.00 0.00 0.00 59 1011.8
20260510201859 93 77 0.0 8.0 0.00 0.00 0.00 59 1011.8
20260510201758 93 78 1.0 8.0 0.00 0.00 0.00 59 1011.8
20260510201658 92 71 1.0 8.0 0.00 0.00 0.00 59 1011.8
20260510201559 92 71 1.0 8.0 0.00 0.00 0.00 59 1011.7
20260510201359 92 212 2.0 5.0 0.00 0.00 0.00 59 1011.7
20260510201256 92 212 0.0 5.0 0.00 0.00 0.00 60 1011.7
20260510201159 92 212 0.0 5.0 0.00 0.00 0.00 59 1011.6
20260510201058 92 212 0.0 5.0 0.00 0.00 0.00 58 1011.7
20260510200656 92 98 0.0 6.0 0.00 0.00 0.00 59 1011.5
20260510200558 92 98 1.0 6.0 0.00 0.00 0.00 60 1011.6
20260510200501 92 98 0.0 6.0 0.00 0.00 0.00 60 1011.6
20260510200158 92 98 1.0 6.0 0.00 0.00 0.00 60 1011.7
20260510200057 92 98 0.0 6.0 0.00 0.00 0.00 59 1011.7
20260510200003 91 137 2.0 4.0 0.00 0.00 0.00 60 1011.7
20260510195856 91 164 3.0 4.0 0.00 0.00 0.00 60 1011.7
20260510195758 91 163 1.0 4.0 0.00 0.00 0.00 60 1011.7
20260510195558 91 165 0.0 4.0 0.00 0.00 0.00 60 1011.7
20260510195458 91 156 2.0 4.0 0.00 0.00 0.00 60 1011.7
20260510195359 91 156 2.0 4.0 0.00 0.00 0.00 61 1011.7
20260510195258 91 155 2.0 4.0 0.00 0.00 0.00 60 1011.7
20260510195159 91 155 2.0 4.0 0.00 0.00 0.00 59 1011.7
20260510195057 91 116 1.0 4.0 0.00 0.00 0.00 59 1011.7
20260510195000 91 100 2.0 5.0 0.00 0.00 0.00 60 1011.8
20260510194858 91 188 1.0 5.0 0.00 0.00 0.00 60 1011.8
20260510194756 91 192 0.0 5.0 0.00 0.00 0.00 60 1011.7
20260510194658 91 192 2.0 5.0 0.00 0.00 0.00 61 1011.8
20260510194557 91 197 0.0 5.0 0.00 0.00 0.00 60 1011.8
20260510194359 91 203 2.0 5.0 0.00 0.00 0.00 60 1011.8
20260510194159 91 203 2.0 5.0 0.00 0.00 0.00 60 1011.9
20260510193857 91 173 1.0 5.0 0.00 0.00 0.00 60 1011.9
20260510193759 91 173 2.0 5.0 0.00 0.00 0.00 60 1011.9
20260510193700 91 173 3.0 7.0 0.00 0.00 0.00 61 1011.9
20260510193558 91 151 1.0 7.0 0.00 0.00 0.00 61 1011.8
20260510193458 91 151 2.0 7.0 0.00 0.00 0.00 61 1011.9
20260510193258 91 137 3.0 7.0 0.00 0.00 0.00 61 1011.8
20260510193159 91 234 1.0 7.0 0.00 0.00 0.00 60 1011.9
20260510193057 91 234 1.0 7.0 0.00 0.00 0.00 61 1011.9
20260510193000 91 234 0.0 7.0 0.00 0.00 0.00 60 1012.0
20260510192857 92 234 2.0 7.0 0.00 0.00 0.00 60 1011.9
20260510192658 92 332 2.0 5.0 0.00 0.00 0.00 60 1011.9
20260510192556 92 16 2.0 5.0 0.00 0.00 0.00 61 1011.9
20260510192456 92 15 2.0 5.0 0.00 0.00 0.00 61 1011.9
20260510192258 91 90 1.0 5.0 0.00 0.00 0.00 61 1011.9
20260510192158 91 112 0.0 5.0 0.00 0.00 0.00 62 1012.0
20260510192058 91 112 1.0 5.0 0.00 0.00 0.00 62 1011.9
20260510192000 91 112 0.0 5.0 0.00 0.00 0.00 61 1012.0
20260510191858 91 112 1.0 5.0 0.00 0.00 0.00 61 1012.0
20260510191759 91 109 1.0 5.0 0.00 0.00 0.00 61 1012.0
20260510191656 91 109 2.0 5.0 0.00 0.00 0.00 61 1012.0
20260510191556 91 212 1.0 5.0 0.00 0.00 0.00 61 1012.0
20260510191457 91 212 1.0 5.0 0.00 0.00 0.00 61 1012.0
20260510191358 91 215 3.0 5.0 0.00 0.00 0.00 61 1012.0
20260510191258 91 217 2.0 5.0 0.00 0.00 0.00 61 1012.0
20260510191159 91 218 2.0 5.0 0.00 0.00 0.00 60 1012.0
20260510191058 92 175 3.0 6.0 0.00 0.00 0.00 61 1012.0
20260510191000 92 114 1.0 6.0 0.00 0.00 0.00 61 1012.0
20260510190756 91 88 1.0 6.0 0.00 0.00 0.00 61 1012.0
20260510190658 91 88 0.0 6.0 0.00 0.00 0.00 61 1012.0
20260510190557 91 152 1.0 6.0 0.00 0.00 0.00 61 1012.0
20260510190458 91 207 1.0 6.0 0.00 0.00 0.00 61 1012.0
20260510190357 92 210 5.0 6.0 0.00 0.00 0.00 60 1012.0
20260510190159 92 212 1.0 5.0 0.00 0.00 0.00 61 1012.0
20260510185958 92 108 3.0 5.0 0.00 0.00 0.00 61 1012.1
20260510185856 92 100 0.0 5.0 0.00 0.00 0.00 61 1012.1
20260510185757 92 100 2.0 5.0 0.00 0.00 0.00 61 1012.1
20260510185659 92 100 1.0 5.0 0.00 0.00 0.00 60 1012.1
20260510185557 92 132 3.0 5.0 0.00 0.00 0.00 61 1012.1
20260510185458 92 50 1.0 5.0 0.00 0.00 0.00 61 1012.1
20260510185358 92 222 4.0 5.0 0.00 0.00 0.00 60 1012.1
20260510185156 92 101 1.0 4.0 0.00 0.00 0.00 61 1012.2
20260510185009 92 102 1.0 4.0 0.00 0.00 0.00 61 1012.2
20260510184856 92 82 1.0 4.0 0.00 0.00 0.00 60 1012.2
20260510184758 92 118 3.0 4.0 0.00 0.00 0.00 60 1012.3
20260510184658 92 106 3.0 4.0 0.00 0.00 0.00 61 1012.2
20260510184459 92 106 1.0 5.0 0.00 0.00 0.00 60 1012.2
20260510184357 92 106 1.0 5.0 0.00 0.00 0.00 60 1012.2
20260510184258 92 106 0.0 5.0 0.00 0.00 0.00 60 1012.3
20260510184058 92 106 2.0 5.0 0.00 0.00 0.00 61 1012.3
20260510184008 91 106 0.0 5.0 0.00 0.00 0.00 60 1012.3
20260510183759 91 96 1.0 5.0 0.00 0.00 0.00 61 1012.4
20260510183658 91 158 0.0 5.0 0.00 0.00 0.00 61 1012.4
20260510183359 91 104 0.0 5.0 0.00 0.00 0.00 61 1012.4
20260510183258 91 104 1.0 5.0 0.00 0.00 0.00 61 1012.4
20260510183158 91 104 3.0 5.0 0.00 0.00 0.00 61 1012.5
20260510183058 90 148 1.0 5.0 0.00 0.00 0.00 62 1012.5
20260510183010 90 148 0.0 5.0 0.00 0.00 0.00 62 1012.5
20260510182659 90 225 0.0 5.0 0.00 0.00 0.00 62 1012.6
20260510182557 90 225 2.0 5.0 0.00 0.00 0.00 61 1012.6
20260510182457 90 129 3.0 5.0 0.00 0.00 0.00 61 1012.6
20260510182357 90 121 2.0 5.0 0.00 0.00 0.00 61 1012.6
20260510182258 91 183 2.0 4.0 0.00 0.00 0.00 60 1012.6
20260510182157 91 180 1.0 4.0 0.00 0.00 0.00 61 1012.6
20260510182058 91 180 3.0 4.0 0.00 0.00 0.00 61 1012.7
20260510182006 91 128 1.0 4.0 0.00 0.00 0.00 62 1012.7
20260510181858 91 128 0.0 4.0 0.00 0.00 0.00 62 1012.6
20260510181759 91 128 0.0 4.0 0.00 0.00 0.00 62 1012.6
20260510181658 91 128 0.0 5.0 0.00 0.00 0.00 62 1012.6
20260510181559 90 127 1.0 5.0 0.00 0.00 0.00 62 1012.6
20260510181357 90 191 2.0 5.0 0.00 0.00 0.00 62 1012.6
20260510181256 90 191 1.0 5.0 0.00 0.00 0.00 62 1012.6
20260510181159 90 191 2.0 5.0 0.00 0.00 0.00 62 1012.6
20260510181058 90 121 0.0 5.0 0.00 0.00 0.00 62 1012.6
20260510180958 90 121 3.0 5.0 0.00 0.00 0.00 62 1012.7
20260510180858 90 121 3.0 5.0 0.00 0.00 0.00 63 1012.7
20260510180659 90 178 2.0 4.0 0.00 0.00 0.00 62 1012.7
20260510180557 90 178 1.0 4.0 0.00 0.00 0.00 63 1012.7
20260510180458 90 174 2.0 3.0 0.00 0.00 0.00 62 1012.7
20260510180359 90 179 1.0 3.0 0.00 0.00 0.00 62 1012.7
20260510180258 90 179 0.0 5.0 0.00 0.00 0.00 63 1012.8
20260510180157 90 179 0.0 5.0 0.00 0.00 0.00 63 1012.7
20260510180057 90 179 2.0 5.0 0.00 0.00 0.00 63 1012.7
20260510180005 90 210 0.0 5.0 0.00 0.00 0.00 62 1012.7
20260510175858 90 210 2.0 5.0 0.00 0.00 0.00 63 1012.8
20260510175757 90 210 1.0 5.0 0.00 0.00 0.00 63 1012.8
20260510175657 90 210 0.0 5.0 0.00 0.00 0.00 62 1012.8
20260510175559 90 210 3.0 5.0 0.00 0.00 0.00 62 1012.8
20260510175458 91 119 4.0 4.0 0.00 0.00 0.00 62 1012.8
20260510175256 91 96 2.0 6.0 0.00 0.00 0.00 63 1012.9
20260510175159 91 154 1.0 6.0 0.00 0.00 0.00 63 1012.9
20260510175058 91 154 1.0 6.0 0.00 0.00 0.00 63 1012.9
20260510174958 91 154 0.0 6.0 0.00 0.00 0.00 63 1012.9
20260510174857 91 154 1.0 6.0 0.00 0.00 0.00 63 1012.9
20260510174759 91 154 1.0 6.0 0.00 0.00 0.00 63 1012.9
20260510174658 91 98 0.0 6.0 0.00 0.00 0.00 63 1012.9
20260510174557 91 98 0.0 6.0 0.00 0.00 0.00 62 1013.0
20260510174456 91 70 6.0 6.0 0.00 0.00 0.00 63 1012.9
20260510174359 91 232 2.0 3.0 0.00 0.00 0.00 63 1013.0
20260510174258 91 232 0.0 2.0 0.00 0.00 0.00 63 1013.0
20260510174157 91 233 0.0 3.0 0.00 0.00 0.00 63 1013.0
20260510174056 91 233 1.0 3.0 0.00 0.00 0.00 63 1012.9
20260510173958 90 233 0.0 3.0 0.00 0.00 0.00 63 1013.0
20260510173858 90 233 0.0 3.0 0.00 0.00 0.00 63 1012.9
20260510173757 90 233 0.0 6.0 0.00 0.00 0.00 63 1012.9
20260510173656 90 233 1.0 6.0 0.00 0.00 0.00 63 1013.0
20260510173500 90 233 2.0 6.0 0.00 0.00 0.00 63 1012.9
20260510173359 90 232 3.0 6.0 0.00 0.00 0.00 63 1012.9
20260510173158 90 233 1.0 6.0 0.00 0.00 0.00 64 1012.9
20260510173058 90 233 0.0 6.0 0.00 0.00 0.00 64 1013.0
20260510173000 90 233 2.0 6.0 0.00 0.00 0.00 63 1013.0
20260510172757 90 162 1.0 3.0 0.00 0.00 0.00 63 1013.0
20260510172658 90 162 0.0 3.0 0.00 0.00 0.00 63 1013.0
20260510172556 90 162 0.0 3.0 0.00 0.00 0.00 63 1013.1
20260510172457 90 162 1.0 3.0 0.00 0.00 0.00 63 1013.1
20260510172358 89 124 0.0 4.0 0.00 0.00 0.00 64 1013.1
20260510172056 89 125 2.0 4.0 0.00 0.00 0.00 64 1013.2
20260510171958 89 124 2.0 4.0 0.00 0.00 0.00 64 1013.2
20260510171858 89 124 1.0 4.0 0.00 0.00 0.00 64 1013.1
20260510171656 89 124 1.0 4.0 0.00 0.00 0.00 63 1013.2
20260510171557 89 128 0.0 3.0 0.00 0.00 0.00 63 1013.2
20260510171459 89 128 0.0 3.0 0.00 0.00 0.00 63 1013.2
20260510171256 90 128 1.0 3.0 0.00 0.00 0.00 63 1013.3
20260510171157 90 128 1.0 3.0 0.00 0.00 0.00 63 1013.3
20260510171000 90 128 1.0 3.0 0.00 0.00 0.00 63 1013.3
20260510170757 89 128 0.0 3.0 0.00 0.00 0.00 63 1013.4
20260510170559 89 128 2.0 4.0 0.00 0.00 0.00 63 1013.3
20260510170458 89 128 1.0 4.0 0.00 0.00 0.00 63 1013.4
20260510170258 89 67 0.0 4.0 0.00 0.00 0.00 63 1013.4
20260510170159 89 67 1.0 4.0 0.00 0.00 0.00 63 1013.3
20260510170056 89 67 0.0 5.0 0.00 0.00 0.00 63 1013.4
20260510165959 89 67 3.0 5.0 0.00 0.00 0.00 63 1013.3
20260510165759 89 63 2.0 5.0 0.00 0.00 0.00 63 1013.4
20260510165557 88 57 1.0 5.0 0.00 0.00 0.00 63 1013.4
20260510165459 88 57 1.0 5.0 0.00 0.00 0.00 63 1013.4
20260510165359 88 57 1.0 5.0 0.00 0.00 0.00 63 1013.4
20260510165258 88 57 2.0 5.0 0.00 0.00 0.00 63 1013.4
20260510165200 88 58 0.0 5.0 0.00 0.00 0.00 63 1013.4
20260510165056 88 58 0.0 5.0 0.00 0.00 0.00 63 1013.4
20260510165000 88 60 0.0 5.0 0.00 0.00 0.00 63 1013.5
20260510164856 88 60 3.0 5.0 0.00 0.00 0.00 63 1013.4
20260510164757 88 57 1.0 5.0 0.00 0.00 0.00 63 1013.5
20260510164656 88 56 2.0 5.0 0.00 0.00 0.00 63 1013.5
20260510164458 88 56 2.0 5.0 0.00 0.00 0.00 63 1013.4
20260510164357 88 56 1.0 5.0 0.00 0.00 0.00 63 1013.5
20260510164256 88 56 0.0 4.0 0.00 0.00 0.00 63 1013.5
20260510164158 88 56 3.0 4.0 0.00 0.00 0.00 63 1013.6
20260510163958 88 55 0.0 7.0 0.00 0.00 0.00 63 1013.5
20260510163856 88 55 0.0 7.0 0.00 0.00 0.00 63 1013.6
20260510163757 88 54 1.0 7.0 0.00 0.00 0.00 62 1013.6
20260510163658 88 54 1.0 7.0 0.00 0.00 0.00 62 1013.6
20260510163457 88 54 3.0 7.0 0.00 0.00 0.00 62 1013.6
20260510163357 88 54 0.0 7.0 0.00 0.00 0.00 63 1013.6
20260510163258 88 54 4.0 7.0 0.00 0.00 0.00 62 1013.6
20260510163000 88 90 0.0 7.0 0.00 0.00 0.00 62 1013.5
20260510162858 88 90 2.0 7.0 0.00 0.00 0.00 62 1013.5
20260510162759 88 90 1.0 7.0 0.00 0.00 0.00 62 1013.6
20260510162656 88 90 1.0 7.0 0.00 0.00 0.00 62 1013.6
20260510162558 88 90 4.0 7.0 0.00 0.00 0.00 62 1013.5
20260510162459 88 94 0.0 7.0 0.00 0.00 0.00 62 1013.6
20260510162256 87 21 2.0 7.0 0.00 0.00 0.00 62 1013.5
20260510162159 87 63 6.0 6.0 0.00 0.00 0.00 61 1013.5
20260510162058 87 45 2.0 5.0 0.00 0.00 0.00 61 1013.5
20260510162000 87 45 1.0 5.0 0.00 0.00 0.00 61 1013.4
20260510161856 87 45 0.0 5.0 0.00 0.00 0.00 61 1013.5
20260510161757 87 45 0.0 5.0 0.00 0.00 0.00 61 1013.5
20260510161658 87 45 0.0 5.0 0.00 0.00 0.00 60 1013.6
20260510161557 87 45 2.0 5.0 0.00 0.00 0.00 61 1013.6
20260510161456 87 44 2.0 5.0 0.00 0.00 0.00 61 1013.7
20260510161357 87 44 1.0 5.0 0.00 0.00 0.00 61 1013.7
20260510161258 87 35 4.0 4.0 0.00 0.00 0.00 60 1013.8
20260510161200 87 175 1.0 5.0 0.00 0.00 0.00 61 1013.8
20260510161056 86 175 1.0 5.0 0.00 0.00 0.00 61 1013.8
20260510160958 86 175 1.0 5.0 0.00 0.00 0.00 61 1013.8
20260510160856 86 175 2.0 5.0 0.00 0.00 0.00 61 1013.7
20260510160759 86 152 2.0 5.0 0.00 0.00 0.00 61 1013.7
20260510160656 86 152 0.0 5.0 0.00 0.00 0.00 60 1013.7
20260510160558 86 152 1.0 5.0 0.00 0.00 0.00 60 1013.8
20260510160459 86 152 0.0 5.0 0.00 0.00 0.00 60 1013.8
20260510160359 86 89 5.0 5.0 0.00 0.00 0.00 60 1013.8
20260510160256 86 64 0.0 4.0 0.00 0.00 0.00 60 1013.9
20260510160157 86 64 0.0 4.0 0.00 0.00 0.00 60 1013.8
20260510155859 86 105 4.0 5.0 0.00 0.00 0.00 60 1013.9
20260510155758 86 219 2.0 5.0 0.00 0.00 0.00 60 1013.9
20260510155657 86 221 1.0 5.0 0.00 0.00 0.00 60 1013.9
20260510155600 86 85 0.0 5.0 0.00 0.00 0.00 60 1013.9
20260510155501 86 85 0.0 5.0 0.00 0.00 0.00 60 1014.0
20260510155358 86 85 0.0 5.0 0.00 0.00 0.00 60 1014.0
20260510155257 86 85 2.0 5.0 0.00 0.00 0.00 60 1014.0
20260510155159 86 82 4.0 5.0 0.00 0.00 0.00 59 1014.0
20260510155100 86 44 3.0 4.0 0.00 0.00 0.00 58 1014.0
20260510154959 86 45 0.0 4.0 0.00 0.00 0.00 58 1014.0
20260510154857 86 45 3.0 4.0 0.00 0.00 0.00 57 1014.1
20260510154457 85 45 2.0 3.0 0.00 0.00 0.00 58 1014.0
20260510154358 85 46 0.0 3.0 0.00 0.00 0.00 58 1014.1
20260510154301 85 45 1.0 2.0 0.00 0.00 0.00 59 1014.1
20260510154159 85 45 1.0 2.0 0.00 0.00 0.00 59 1014.1
20260510154057 85 45 1.0 4.0 0.00 0.00 0.00 58 1014.1
20260510154001 85 45 1.0 4.0 0.00 0.00 0.00 59 1014.1
20260510153900 85 45 1.0 4.0 0.00 0.00 0.00 58 1014.1
20260510153759 84 45 1.0 4.0 0.00 0.00 0.00 57 1014.1
20260510153657 84 45 0.0 4.0 0.00 0.00 0.00 56 1014.1
20260510153601 84 45 1.0 4.0 0.00 0.00 0.00 56 1014.1
20260510153459 84 45 0.0 5.0 0.00 0.00 0.00 55 1014.1
20260510153400 84 45 1.0 5.0 0.00 0.00 0.00 54 1014.2
20260510153257 84 45 1.0 5.0 0.00 0.00 0.00 54 1014.1
20260510153158 84 44 0.0 5.0 0.00 0.00 0.00 53 1014.2
20260510153059 84 45 0.0 5.0 0.00 0.00 0.00 54 1014.2
20260510153000 84 45 1.0 5.0 0.00 0.00 0.00 53 1014.2
20260510152859 84 45 0.0 5.0 0.00 0.00 0.00 53 1014.2
20260510152558 84 44 3.0 5.0 0.00 0.00 0.00 52 1014.2
20260510152457 84 41 1.0 4.0 0.00 0.00 0.00 53 1014.2
20260510152259 84 41 3.0 3.0 0.00 0.00 0.00 52 1014.2
20260510152201 84 49 0.0 3.0 0.00 0.00 0.00 52 1014.2
20260510151959 84 49 1.0 3.0 0.00 0.00 0.00 52 1014.2
20260510151900 84 49 3.0 3.0 0.00 0.00 0.00 51 1014.2
20260510151759 84 48 1.0 3.0 0.00 0.00 0.00 50 1014.2
20260510151558 84 48 1.0 3.0 0.00 0.00 0.00 50 1014.2
20260510151458 83 38 3.0 3.0 0.00 0.00 0.00 49 1014.2
20260510151401 83 37 2.0 3.0 0.00 0.00 0.00 49 1014.2
20260510151259 83 107 2.0 3.0 0.00 0.00 0.00 49 1014.2
20260510151158 83 107 0.0 3.0 0.00 0.00 0.00 49 1014.2
20260510151057 83 107 2.0 3.0 0.00 0.00 0.00 49 1014.2
20260510151001 83 107 1.0 4.0 0.00 0.00 0.00 49 1014.2
20260510150857 83 107 0.0 4.0 0.00 0.00 0.00 49 1014.2
20260510150758 83 107 3.0 4.0 0.00 0.00 0.00 49 1014.1
20260510150657 83 107 1.0 4.0 0.00 0.00 0.00 48 1014.2
20260510150559 83 107 0.0 4.0 0.00 0.00 0.00 48 1014.2
20260510150458 83 107 0.0 4.0 0.00 0.00 0.00 48 1014.1
20260510150358 83 107 1.0 4.0 0.00 0.00 0.00 48 1014.1
20260510150257 83 107 0.0 4.0 0.00 0.00 0.00 47 1014.1
20260510150201 83 107 2.0 4.0 0.00 0.00 0.00 46 1014.1
20260510150057 83 204 0.0 3.0 0.00 0.00 0.00 46 1014.1
20260510150004 83 204 0.0 3.0 0.00 0.00 0.00 45 1014.1
20260510145857 83 204 0.0 3.0 0.00 0.00 0.00 44 1014.1
20260510145657 83 204 2.0 3.0 0.00 0.00 0.00 44 1014.1
20260510145559 83 205 0.0 5.0 0.00 0.00 0.00 45 1014.0
20260510145458 83 205 0.0 5.0 0.00 0.00 0.00 45 1014.1
20260510145401 83 205 0.0 5.0 0.00 0.00 0.00 45 1014.1
20260510145159 83 205 0.0 5.0 0.00 0.00 0.00 45 1014.1
20260510145057 83 206 1.0 5.0 0.00 0.00 0.00 44 1014.1
20260510145000 83 206 2.0 5.0 0.00 0.00 0.00 44 1014.0
20260510144857 83 210 0.0 5.0 0.00 0.00 0.00 45 1014.0
20260510144758 83 210 1.0 5.0 0.00 0.00 0.00 45 1014.1
20260510144659 82 73 1.0 4.0 0.00 0.00 0.00 43 1014.1
20260510144558 82 73 0.0 4.0 0.00 0.00 0.00 44 1014.1
20260510144458 82 73 0.0 4.0 0.00 0.00 0.00 43 1014.0
20260510144357 82 73 3.0 4.0 0.00 0.00 0.00 39 1014.1
20260510144259 82 73 1.0 4.0 0.00 0.00 0.00 39 1014.1
20260510144158 82 73 2.0 4.0 0.00 0.00 0.00 38 1014.1
20260510144058 82 73 3.0 4.0 0.00 0.00 0.00 37 1014.1
20260510143959 82 73 1.0 4.0 0.00 0.00 0.00 37 1014.0
20260510143858 82 73 2.0 4.0 0.00 0.00 0.00 38 1014.0
20260510143800 82 73 0.0 4.0 0.00 0.00 0.00 36 1014.0
20260510143658 82 73 3.0 4.0 0.00 0.00 0.00 34 1014.0
20260510143458 81 50 0.0 3.0 0.00 0.00 0.00 34 1014.0
20260510143358 81 50 2.0 2.0 0.00 0.00 0.00 32 1014.0
20260510143257 81 50 0.0 2.0 0.00 0.00 0.00 33 1014.0
20260510143158 81 50 0.0 4.0 0.00 0.00 0.00 33 1014.0
20260510143057 81 50 0.0 4.0 0.00 0.00 0.00 31 1014.0
20260510143001 81 50 1.0 4.0 0.00 0.00 0.00 30 1014.0
20260510142857 81 50 0.0 4.0 0.00 0.00 0.00 29 1014.0
20260510142758 80 50 1.0 4.0 0.00 0.00 0.00 26 1014.0
20260510142658 80 50 0.0 4.0 0.00 0.00 0.00 25 1014.0
20260510142558 80 50 0.0 4.0 0.00 0.00 0.00 23 1014.1
20260510142458 80 50 0.0 4.0 0.00 0.00 0.00 23 1014.1
20260510142359 80 50 1.0 4.0 0.00 0.00 0.00 21 1014.1
20260510142158 80 48 0.0 4.0 0.00 0.00 0.00 18 1014.0
20260510142000 79 70 1.0 4.0 0.00 0.00 0.00 18 1014.0
20260510141857 79 70 0.0 4.0 0.00 0.00 0.00 19 1014.0
20260510141758 79 70 0.0 4.0 0.00 0.00 0.00 18 1014.0
20260510141657 79 70 2.0 4.0 0.00 0.00 0.00 18 1014.0
20260510141558 79 70 1.0 4.0 0.00 0.00 0.00 16 1014.0
20260510141458 79 70 3.0 4.0 0.00 0.00 0.00 14 1014.0
20260510141358 79 70 1.0 2.0 0.00 0.00 0.00 14 1014.0
20260510141258 79 70 0.0 5.0 0.00 0.00 0.00 13 1014.0
20260510141158 79 70 2.0 5.0 0.00 0.00 0.00 12 1014.0
20260510141058 79 70 0.0 5.0 0.00 0.00 0.00 12 1013.9
20260510141000 79 70 0.0 5.0 0.00 0.00 0.00 12 1013.9
20260510140858 79 70 0.0 5.0 0.00 0.00 0.00 11 1013.9
20260510140558 79 70 0.0 5.0 0.00 0.00 0.00 8 1013.9
20260510140358 78 67 0.0 4.0 0.00 0.00 0.00 100 1013.8
20260510140257 78 67 1.0 4.0 0.00 0.00 0.00 100 1013.8
20260510140158 78 67 1.0 4.0 0.00 0.00 0.00 100 1013.8
20260510140058 78 67 0.0 4.0 0.00 0.00 0.00 100 1013.8
20260510140007 77 67 0.0 4.0 0.00 0.00 0.00 100 1013.8
20260510135857 77 67 1.0 5.0 0.00 0.00 0.00 100 1013.7
20260510135759 77 67 0.0 5.0 0.00 0.00 0.00 100 1013.7
20260510135657 77 67 1.0 5.0 0.00 0.00 0.00 100 1013.7
20260510135558 77 67 2.0 5.0 0.00 0.00 0.00 100 1013.8
20260510135358 77 67 0.0 5.0 0.00 0.00 0.00 100 1013.7
20260510135258 77 67 1.0 5.0 0.00 0.00 0.00 100 1013.7
20260510135058 76 67 3.0 5.0 0.00 0.00 0.00 100 1013.7
20260510134959 76 96 1.0 5.0 0.00 0.00 0.00 100 1013.7
20260510134858 76 96 2.0 5.0 0.00 0.00 0.00 100 1013.6
20260510134758 76 100 3.0 4.0 0.00 0.00 0.00 100 1013.6
20260510134658 76 100 0.0 2.0 0.00 0.00 0.00 100 1013.6
20260510134558 76 100 0.0 2.0 0.00 0.00 0.00 100 1013.6
20260510134457 76 100 0.0 2.0 0.00 0.00 0.00 100 1013.6
20260510134358 76 100 1.0 2.0 0.00 0.00 0.00 100 1013.6
20260510134257 76 100 0.0 2.0 0.00 0.00 0.00 100 1013.6
20260510134159 75 100 0.0 3.0 0.00 0.00 0.00 100 1013.6
20260510134058 75 100 0.0 3.0 0.00 0.00 0.00 100 1013.6
20260510133959 75 100 0.0 3.0 0.00 0.00 0.00 100 1013.6
20260510133857 75 100 2.0 3.0 0.00 0.00 0.00 100 1013.5
20260510133658 75 100 0.0 3.0 0.00 0.00 0.00 100 1013.5
20260510133358 75 100 2.0 4.0 0.00 0.00 0.00 100 1013.5
20260510133257 75 100 2.0 4.0 0.00 0.00 0.00 100 1013.5
20260510133158 75 100 1.0 4.0 0.00 0.00 0.00 100 1013.5
20260510133059 75 100 0.0 4.0 0.00 0.00 0.00 100 1013.5
20260510132959 75 100 0.0 4.0 0.00 0.00 0.00 100 1013.5
20260510132800 75 100 0.0 4.0 0.00 0.00 0.00 100 1013.5
20260510132559 75 100 0.0 4.0 0.00 0.00 0.00 100 1013.5
20260510132458 75 100 1.0 4.0 0.00 0.00 0.00 100 1013.4
20260510132358 75 100 0.0 4.0 0.00 0.00 0.00 100 1013.4
20260510132158 75 154 1.0 3.0 0.00 0.00 0.00 100 1013.3
20260510132059 75 154 0.0 3.0 0.00 0.00 0.00 100 1013.3
20260510132001 75 154 0.0 3.0 0.00 0.00 0.00 100 1013.3
20260510131857 75 154 0.0 3.0 0.00 0.00 0.00 100 1013.3
20260510131759 75 154 0.0 3.0 0.00 0.00 0.00 100 1013.3
20260510131657 75 154 0.0 3.0 0.00 0.00 0.00 100 1013.3
20260510131559 75 154 2.0 3.0 0.00 0.00 0.00 100 1013.3
20260510131500 75 154 0.0 3.0 0.00 0.00 0.00 100 1013.3
20260510131357 75 154 0.0 3.0 0.00 0.00 0.00 100 1013.3
20260510131257 75 154 0.0 3.0 0.00 0.00 0.00 100 1013.3
20260510131158 75 154 1.0 3.0 0.00 0.00 0.00 100 1013.3
20260510131057 75 154 0.0 2.0 0.00 0.00 0.00 100 1013.2
20260510130959 75 154 0.0 2.0 0.00 0.00 0.00 100 1013.2
20260510130857 75 154 0.0 2.0 0.00 0.00 0.00 100 1013.2
20260510130759 75 154 0.0 2.0 0.00 0.00 0.00 100 1013.2
20260510130557 74 154 0.0 2.0 0.00 0.00 0.00 100 1013.1
20260510130458 74 154 0.0 2.0 0.00 0.00 0.00 100 1013.1
20260510130359 74 154 0.0 2.0 0.00 0.00 0.00 100 1013.1
20260510130259 74 154 0.0 2.0 0.00 0.00 0.00 100 1013.0
20260510130158 74 154 1.0 2.0 0.00 0.00 0.00 100 1013.0
20260510130000 74 154 0.0 2.0 0.00 0.00 0.00 100 1012.9
20260510125858 74 154 0.0 2.0 0.00 0.00 0.00 100 1012.9
20260510125757 74 154 1.0 2.0 0.00 0.00 0.00 100 1012.8
20260510125658 74 154 1.0 2.0 0.00 0.00 0.00 100 1012.8
20260510125558 74 154 0.0 2.0 0.00 0.00 0.00 100 1012.8
20260510125459 74 154 0.0 1.0 0.00 0.00 0.00 100 1012.7
20260510125357 74 154 0.0 1.0 0.00 0.00 0.00 100 1012.7
20260510125256 74 154 0.0 2.0 0.00 0.00 0.00 100 1012.7
20260510125159 74 154 0.0 2.0 0.00 0.00 0.00 100 1012.7
20260510125058 74 154 0.0 2.0 0.00 0.00 0.00 100 1012.7
20260510124957 74 154 0.0 2.0 0.00 0.00 0.00 100 1012.6
20260510124856 74 154 0.0 2.0 0.00 0.00 0.00 100 1012.7
20260510124759 74 154 0.0 2.0 0.00 0.00 0.00 100 1012.6
20260510124658 74 154 0.0 2.0 0.00 0.00 0.00 100 1012.6
20260510124558 74 154 0.0 2.0 0.00 0.00 0.00 100 1012.6
20260510124456 74 154 0.0 2.0 0.00 0.00 0.00 100 1012.5
20260510124357 74 154 0.0 2.0 0.00 0.00 0.00 100 1012.5
20260510124257 74 154 0.0 2.0 0.00 0.00 0.00 100 1012.5
20260510124159 74 154 0.0 2.0 0.00 0.00 0.00 100 1012.5
20260510124057 74 154 0.0 2.0 0.00 0.00 0.00 100 1012.4
20260510123859 74 154 0.0 0.0 0.00 0.00 0.00 100 1012.5
20260510123759 74 154 0.0 0.0 0.00 0.00 0.00 100 1012.5
20260510123657 74 154 0.0 0.0 0.00 0.00 0.00 100 1012.4
20260510123558 74 154 0.0 1.0 0.00 0.00 0.00 100 1012.4
20260510123459 74 154 0.0 1.0 0.00 0.00 0.00 100 1012.4
20260510123401 74 154 0.0 1.0 0.00 0.00 0.00 100 1012.4
20260510123257 74 154 0.0 1.0 0.00 0.00 0.00 100 1012.4
20260510123157 74 154 0.0 1.0 0.00 0.00 0.00 100 1012.4
20260510123100 74 154 0.0 1.0 0.00 0.00 0.00 100 1012.4
20260510122857 74 154 0.0 1.0 0.00 0.00 0.00 100 1012.4
20260510122758 74 154 1.0 1.0 0.00 0.00 0.00 100 1012.3
20260510122559 74 154 0.0 0.0 0.00 0.00 0.00 100 1012.3
20260510122457 74 154 0.0 0.0 0.00 0.00 0.00 100 1012.2
20260510122358 74 154 0.0 0.0 0.00 0.00 0.00 100 1012.2
20260510122259 74 154 0.0 0.0 0.00 0.00 0.00 100 1012.2
20260510122159 74 154 0.0 0.0 0.00 0.00 0.00 100 1012.1
20260510122057 74 154 0.0 0.0 0.00 0.00 0.00 100 1012.2
20260510121959 74 154 0.0 0.0 0.00 0.00 0.00 100 1012.1
20260510121859 74 154 0.0 0.0 0.00 0.00 0.00 100 1012.1
20260510121800 74 154 0.0 0.0 0.00 0.00 0.00 100 1012.0
20260510121657 74 154 0.0 0.0 0.00 0.00 0.00 100 1011.9
20260510121558 74 154 0.0 0.0 0.00 0.00 0.00 100 1011.9
20260510121459 74 154 0.0 0.0 0.00 0.00 0.00 100 1011.9
20260510121400 74 154 0.0 0.0 0.00 0.00 0.00 100 1011.9
20260510121257 74 154 0.0 0.0 0.00 0.00 0.00 100 1011.8
20260510121158 74 154 0.0 0.0 0.00 0.00 0.00 100 1011.8
20260510121059 74 154 0.0 0.0 0.00 0.00 0.00 100 1011.8
20260510121001 74 154 0.0 0.0 0.00 0.00 0.00 100 1011.8
20260510120857 74 154 0.0 0.0 0.00 0.00 0.00 100 1011.8
20260510120658 74 154 0.0 0.0 0.00 0.00 0.00 100 1011.7
20260510120600 74 154 0.0 0.0 0.00 0.00 0.00 100 1011.7
20260510120459 74 154 0.0 0.0 0.00 0.00 0.00 100 1011.7
20260510120358 74 154 0.0 0.0 0.00 0.00 0.00 100 1011.7
20260510120257 74 154 0.0 0.0 0.00 0.00 0.00 100 1011.7
20260510120200 74 154 0.0 0.0 0.00 0.00 0.00 100 1011.7
20260510120059 74 154 0.0 0.0 0.00 0.00 0.00 100 1011.6
20260510120002 74 154 0.0 0.0 0.00 0.00 0.00 100 1011.6
20260510115858 74 154 0.0 0.0 0.00 0.00 0.00 100 1011.5
20260510115758 74 154 0.0 0.0 0.00 0.00 0.00 100 1011.6
20260510115658 74 154 0.0 0.0 0.00 0.00 0.00 100 1011.5
20260510115556 74 154 0.0 0.0 0.00 0.00 0.00 100 1011.5
20260510115458 74 154 0.0 0.0 0.00 0.00 0.00 100 1011.5
20260510115358 74 154 0.0 0.0 0.00 0.00 0.00 100 1011.5
20260510115256 74 154 0.0 0.0 0.00 0.00 0.00 100 1011.5
20260510115157 74 154 0.0 0.0 0.00 0.00 0.00 100 1011.4
20260510115056 74 154 0.0 0.0 0.00 0.00 0.00 100 1011.4
20260510115000 74 154 0.0 0.0 0.00 0.00 0.00 100 1011.4
20260510114858 74 154 0.0 0.0 0.00 0.00 0.00 100 1011.4
20260510114757 73 154 0.0 0.0 0.00 0.00 0.00 100 1011.4
20260510114656 74 154 0.0 0.0 0.00 0.00 0.00 100 1011.3
20260510114559 74 154 0.0 0.0 0.00 0.00 0.00 100 1011.3
20260510114458 74 154 0.0 0.0 0.00 0.00 0.00 100 1011.3
20260510114357 73 154 0.0 0.0 0.00 0.00 0.00 100 1011.3
20260510114258 73 154 0.0 0.0 0.00 0.00 0.00 100 1011.3
20260510114159 74 154 0.0 0.0 0.00 0.00 0.00 100 1011.3
20260510114056 73 154 0.0 0.0 0.00 0.00 0.00 100 1011.3
20260510113958 73 154 0.0 0.0 0.00 0.00 0.00 100 1011.2
20260510113856 74 154 0.0 0.0 0.00 0.00 0.00 100 1011.2
20260510113759 73 154 0.0 0.0 0.00 0.00 0.00 100 1011.2
20260510113658 73 154 0.0 1.0 0.00 0.00 0.00 100 1011.1
20260510113557 73 154 0.0 1.0 0.00 0.00 0.00 100 1011.1
20260510113456 73 154 0.0 1.0 0.00 0.00 0.00 100 1011.1
20260510113359 73 154 0.0 1.0 0.00 0.00 0.00 100 1011.1
20260510113258 73 154 0.0 1.0 0.00 0.00 0.00 100 1011.1
20260510113056 73 154 0.0 1.0 0.00 0.00 0.00 100 1011.1
20260510113000 73 154 0.0 1.0 0.00 0.00 0.00 100 1011.0
20260510112756 73 154 0.0 0.0 0.00 0.00 0.00 100 1011.1
20260510112656 73 154 0.0 0.0 0.00 0.00 0.00 100 1011.0
20260510112600 73 154 0.0 0.0 0.00 0.00 0.00 100 1011.0
20260510112458 73 154 0.0 1.0 0.00 0.00 0.00 100 1011.0
20260510112356 73 154 0.0 1.0 0.00 0.00 0.00 100 1011.0
20260510112259 73 154 0.0 1.0 0.00 0.00 0.00 100 1011.0
20260510112159 73 154 0.0 2.0 0.00 0.00 0.00 100 1011.0
20260510112000 73 154 0.0 2.0 0.00 0.00 0.00 100 1011.0
20260510111856 73 154 0.0 2.0 0.00 0.00 0.00 100 1011.0
20260510111759 73 154 0.0 2.0 0.00 0.00 0.00 100 1011.0
20260510111658 73 154 0.0 2.0 0.00 0.00 0.00 100 1011.0
20260510111556 73 154 0.0 2.0 0.00 0.00 0.00 100 1011.0
20260510111456 73 154 0.0 2.0 0.00 0.00 0.00 100 1010.9
20260510111258 73 154 0.0 1.0 0.00 0.00 0.00 100 1010.9
20260510110959 73 154 0.0 1.0 0.00 0.00 0.00 100 1010.8
20260510110758 73 154 0.0 3.0 0.00 0.00 0.00 100 1010.8
20260510110656 73 154 0.0 3.0 0.00 0.00 0.00 100 1010.8
20260510110557 73 154 0.0 3.0 0.00 0.00 0.00 100 1010.9
20260510110458 73 154 0.0 3.0 0.00 0.00 0.00 100 1010.8
20260510110359 73 154 0.0 3.0 0.00 0.00 0.00 100 1010.8
20260510110256 73 154 0.0 3.0 0.00 0.00 0.00 100 1010.8
20260510110158 73 154 0.0 3.0 0.00 0.00 0.00 100 1010.8
20260510110058 73 154 1.0 3.0 0.00 0.00 0.00 100 1010.8
20260510110005 73 154 1.0 1.0 0.00 0.00 0.00 100 1010.8
20260510105857 73 154 1.0 1.0 0.00 0.00 0.00 100 1010.7
20260510105757 73 154 0.0 1.0 0.00 0.00 0.00 100 1010.7
20260510105657 73 154 0.0 1.0 0.00 0.00 0.00 100 1010.7
20260510105559 73 154 0.0 1.0 0.00 0.00 0.00 100 1010.7
20260510105459 73 154 0.0 1.0 0.00 0.00 0.00 100 1010.7
20260510105358 73 154 0.0 1.0 0.00 0.00 0.00 100 1010.7
20260510105257 73 154 0.0 1.0 0.00 0.00 0.00 100 1010.7
20260510105200 73 154 0.0 1.0 0.00 0.00 0.00 100 1010.6
20260510105056 73 154 0.0 1.0 0.00 0.00 0.00 100 1010.6
20260510104959 73 154 0.0 1.0 0.00 0.00 0.00 100 1010.7
20260510104857 73 154 1.0 1.0 0.00 0.00 0.00 100 1010.6
20260510104759 73 154 0.0 1.0 0.00 0.00 0.00 100 1010.6
20260510104659 73 154 0.0 1.0 0.00 0.00 0.00 100 1010.6
20260510104600 73 154 0.0 1.0 0.00 0.00 0.00 100 1010.6
20260510104359 73 154 0.0 1.0 0.00 0.00 0.00 100 1010.5
20260510104259 73 154 0.0 1.0 0.00 0.00 0.00 100 1010.5
20260510104157 73 154 0.0 2.0 0.00 0.00 0.00 100 1010.5
20260510104057 73 154 0.0 2.0 0.00 0.00 0.00 100 1010.5
20260510104000 73 154 0.0 2.0 0.00 0.00 0.00 100 1010.5
20260510103858 73 154 1.0 2.0 0.00 0.00 0.00 100 1010.5
20260510103758 73 154 0.0 2.0 0.00 0.00 0.00 100 1010.5
20260510103659 73 154 0.0 2.0 0.00 0.00 0.00 100 1010.5
20260510103600 73 154 0.0 2.0 0.00 0.00 0.00 100 1010.5
20260510103459 73 154 1.0 2.0 0.00 0.00 0.00 100 1010.4
20260510103357 73 154 0.0 2.0 0.00 0.00 0.00 100 1010.4
20260510103257 73 154 1.0 1.0 0.00 0.00 0.00 100 1010.4
20260510103159 73 154 0.0 1.0 0.00 0.00 0.00 100 1010.4
20260510103059 73 154 0.0 2.0 0.00 0.00 0.00 100 1010.3
20260510102959 73 154 0.0 2.0 0.00 0.00 0.00 100 1010.4
20260510102857 73 154 0.0 2.0 0.00 0.00 0.00 100 1010.3
20260510102758 73 154 0.0 2.0 0.00 0.00 0.00 100 1010.3
20260510102659 73 154 0.0 2.0 0.00 0.00 0.00 100 1010.3
20260510102559 73 154 0.0 3.0 0.00 0.00 0.00 100 1010.3
20260510102400 73 154 0.0 3.0 0.00 0.00 0.00 100 1010.3
20260510102259 73 154 0.0 3.0 0.00 0.00 0.00 100 1010.3
20260510102159 73 154 1.0 3.0 0.00 0.00 0.00 100 1010.3
20260510102057 73 154 0.0 3.0 0.00 0.00 0.00 100 1010.3
20260510102000 73 154 0.0 3.0 0.00 0.00 0.00 100 1010.3
20260510101859 73 154 0.0 3.0 0.00 0.00 0.00 100 1010.3
20260510101759 73 154 0.0 3.0 0.00 0.00 0.00 100 1010.3
20260510101657 73 154 1.0 3.0 0.00 0.00 0.00 100 1010.3
20260510101600 73 154 0.0 3.0 0.00 0.00 0.00 100 1010.2
20260510101459 73 154 1.0 3.0 0.00 0.00 0.00 100 1010.3
20260510101359 73 154 0.0 3.0 0.00 0.00 0.00 100 1010.2
20260510101257 73 154 0.0 2.0 0.00 0.00 0.00 100 1010.2
20260510101159 73 154 0.0 2.0 0.00 0.00 0.00 100 1010.3
20260510101059 73 154 0.0 2.0 0.00 0.00 0.00 100 1010.2
20260510101001 73 154 0.0 2.0 0.00 0.00 0.00 100 1010.2
20260510100857 73 154 0.0 2.0 0.00 0.00 0.00 100 1010.2
20260510100659 73 154 0.0 2.0 0.00 0.00 0.00 100 1010.2
20260510100559 73 154 0.0 2.0 0.00 0.00 0.00 100 1010.2
20260510100457 73 154 0.0 2.0 0.00 0.00 0.00 100 1010.2
20260510100357 73 154 0.0 2.0 0.00 0.00 0.00 100 1010.2
20260510100300 73 154 0.0 2.0 0.00 0.00 0.00 100 1010.2
20260510100159 73 154 0.0 3.0 0.00 0.00 0.00 100 1010.2
20260510100058 73 154 0.0 3.0 0.00 0.00 0.00 100 1010.2
20260510095859 73 154 0.0 3.0 0.00 0.00 0.00 100 1010.2
20260510095759 73 154 0.0 3.0 0.00 0.00 0.00 100 1010.2
20260510095659 73 154 0.0 3.0 0.00 0.00 0.00 100 1010.2
20260510095558 73 154 0.0 3.0 0.00 0.00 0.00 100 1010.2
20260510095500 73 154 1.0 3.0 0.00 0.00 0.00 100 1010.2
20260510095358 73 154 0.0 3.0 0.00 0.00 0.00 100 1010.2
20260510095257 73 154 2.0 3.0 0.00 0.00 0.00 100 1010.2
20260510095159 73 154 0.0 3.0 0.00 0.00 0.00 100 1010.2
20260510095059 73 154 0.0 3.0 0.00 0.00 0.00 100 1010.2
20260510095000 73 154 1.0 3.0 0.00 0.00 0.00 100 1010.2
20260510094859 73 154 0.0 3.0 0.00 0.00 0.00 100 1010.2
20260510094759 73 154 2.0 3.0 0.00 0.00 0.00 100 1010.2
20260510094559 74 152 0.0 3.0 0.00 0.00 0.00 100 1010.2
20260510094459 74 152 0.0 3.0 0.00 0.00 0.00 100 1010.2
20260510094358 74 152 0.0 3.0 0.00 0.00 0.00 100 1010.2
20260510094259 74 152 1.0 3.0 0.00 0.00 0.00 100 1010.2
20260510094158 74 152 0.0 3.0 0.00 0.00 0.00 100 1010.2
20260510093859 74 152 0.0 3.0 0.00 0.00 0.00 100 1010.2
20260510093759 73 152 0.0 3.0 0.00 0.00 0.00 100 1010.3
20260510093657 73 152 0.0 3.0 0.00 0.00 0.00 100 1010.3
20260510093458 73 152 3.0 4.0 0.00 0.00 0.00 100 1010.2
20260510093400 73 152 1.0 4.0 0.00 0.00 0.00 100 1010.3
20260510093259 73 152 1.0 4.0 0.00 0.00 0.00 100 1010.3
20260510093200 73 152 1.0 4.0 0.00 0.00 0.00 100 1010.4
20260510093058 73 152 2.0 4.0 0.00 0.00 0.00 100 1010.4
20260510092959 73 152 0.0 4.0 0.00 0.00 0.00 100 1010.4
20260510092859 73 152 0.0 5.0 0.00 0.00 0.00 100 1010.4
20260510092759 73 152 2.0 5.0 0.00 0.00 0.00 100 1010.4
20260510092659 73 152 3.0 5.0 0.00 0.00 0.00 100 1010.5
20260510092559 73 152 1.0 5.0 0.00 0.00 0.00 100 1010.5
20260510092457 73 152 0.0 5.0 0.00 0.00 0.00 100 1010.5
20260510092359 73 152 2.0 5.0 0.00 0.00 0.00 100 1010.5
20260510092259 73 152 0.0 5.0 0.00 0.00 0.00 100 1010.4
20260510092159 73 152 0.0 5.0 0.00 0.00 0.00 100 1010.4
20260510092058 73 150 2.0 5.0 0.00 0.00 0.00 100 1010.5
20260510092005 73 150 1.0 5.0 0.00 0.00 0.00 100 1010.5
20260510091859 73 150 2.0 5.0 0.00 0.00 0.00 100 1010.5
20260510091758 73 150 1.0 5.0 0.00 0.00 0.00 100 1010.5
20260510091559 73 150 0.0 5.0 0.00 0.00 0.00 100 1010.5
20260510091459 73 150 1.0 5.0 0.00 0.00 0.00 100 1010.5
20260510091359 73 150 3.0 5.0 0.00 0.00 0.00 100 1010.6
20260510091257 73 150 0.0 1.0 0.00 0.00 0.00 100 1010.5
20260510091159 73 150 0.0 2.0 0.00 0.00 0.00 100 1010.6
20260510091058 73 150 0.0 2.0 0.00 0.00 0.00 100 1010.6
20260510090858 73 150 0.0 2.0 0.00 0.00 0.00 100 1010.6
20260510090759 73 150 1.0 2.0 0.00 0.00 0.00 100 1010.6
20260510090659 73 150 0.0 2.0 0.00 0.00 0.00 100 1010.6
20260510090558 73 150 0.0 2.0 0.00 0.00 0.00 100 1010.6
20260510090359 73 150 0.0 2.0 0.00 0.00 0.00 100 1010.7
20260510090057 73 150 0.0 3.0 0.00 0.00 0.00 100 1010.6
20260510090001 73 150 0.0 3.0 0.00 0.00 0.00 100 1010.6
20260510085857 73 150 0.0 3.0 0.00 0.00 0.00 100 1010.6
20260510085758 73 150 0.0 3.0 0.00 0.00 0.00 100 1010.6
20260510085656 73 150 0.0 3.0 0.00 0.00 0.00 100 1010.6
20260510085558 73 150 1.0 3.0 0.00 0.00 0.00 100 1010.6
20260510085458 73 150 0.0 3.0 0.00 0.00 0.00 100 1010.6
20260510085358 73 150 0.0 3.0 0.00 0.00 0.00 100 1010.6
20260510085258 73 150 0.0 3.0 0.00 0.00 0.00 100 1010.6
20260510085158 73 150 0.0 5.0 0.00 0.00 0.00 100 1010.6
20260510085058 73 150 1.0 5.0 0.00 0.00 0.00 100 1010.6
20260510084958 73 150 0.0 5.0 0.00 0.00 0.00 100 1010.6
20260510084857 73 150 0.0 5.0 0.00 0.00 0.00 100 1010.6
20260510084758 73 150 1.0 5.0 0.00 0.00 0.00 100 1010.5
20260510084658 73 150 0.0 5.0 0.00 0.00 0.00 100 1010.5
20260510084456 73 150 2.0 5.0 0.00 0.00 0.00 100 1010.5
20260510084358 73 150 5.0 5.0 0.00 0.00 0.00 100 1010.5
20260510084259 73 150 0.0 3.0 0.00 0.00 0.00 100 1010.5
20260510084058 73 150 2.0 3.0 0.00 0.00 0.00 100 1010.6
20260510083959 73 150 1.0 1.0 0.00 0.00 0.00 100 1010.5
20260510083858 73 150 0.0 1.0 0.00 0.00 0.00 100 1010.5
20260510083757 73 150 0.0 1.0 0.00 0.00 0.00 100 1010.5
20260510083658 73 150 0.0 1.0 0.00 0.00 0.00 100 1010.5
20260510083556 73 150 0.0 1.0 0.00 0.00 0.00 100 1010.5
20260510083459 73 150 0.0 1.0 0.00 0.00 0.00 100 1010.5
20260510083358 73 150 0.0 1.0 0.00 0.00 0.00 100 1010.4
20260510083256 73 150 0.0 1.0 0.00 0.00 0.00 100 1010.5
20260510083159 73 150 1.0 1.0 0.00 0.00 0.00 100 1010.4
20260510083056 73 150 0.0 0.0 0.00 0.00 0.00 100 1010.4
20260510082959 73 150 0.0 0.0 0.00 0.00 0.00 100 1010.4
20260510082858 73 150 0.0 0.0 0.00 0.00 0.00 100 1010.4
20260510082758 73 150 0.0 0.0 0.00 0.00 0.00 100 1010.4
20260510082656 73 150 0.0 0.0 0.00 0.00 0.00 100 1010.4
20260510082558 73 150 0.0 0.0 0.00 0.00 0.00 100 1010.3
20260510082456 73 150 0.0 0.0 0.00 0.00 0.00 100 1010.3
20260510082358 73 150 0.0 0.0 0.00 0.00 0.00 100 1010.3
20260510082058 73 150 0.0 0.0 0.00 0.00 0.00 100 1010.3
20260510081957 73 150 0.0 0.0 0.00 0.00 0.00 100 1010.3
20260510081856 73 150 0.0 0.0 0.00 0.00 0.00 100 1010.3
20260510081758 73 150 0.0 0.0 0.00 0.00 0.00 100 1010.3
20260510081657 73 150 0.0 1.0 0.00 0.00 0.00 100 1010.3
20260510081556 73 150 0.0 1.0 0.00 0.00 0.00 100 1010.3
20260510081456 73 150 0.0 1.0 0.00 0.00 0.00 100 1010.3
20260510081356 73 150 0.0 1.0 0.00 0.00 0.00 100 1010.3
20260510081256 73 150 0.0 1.0 0.00 0.00 0.00 100 1010.3
20260510080957 73 150 0.0 1.0 0.00 0.00 0.00 100 1010.2
20260510080856 73 150 0.0 1.0 0.00 0.00 0.00 100 1010.3
20260510080758 73 150 0.0 1.0 0.00 0.00 0.00 100 1010.3
20260510080656 73 150 0.0 1.0 0.00 0.00 0.00 100 1010.3
20260510080558 73 150 0.0 2.0 0.00 0.00 0.00 100 1010.2
20260510080357 73 150 1.0 2.0 0.00 0.00 0.00 100 1010.2
20260510080258 73 150 0.0 2.0 0.00 0.00 0.00 100 1010.2
20260510080057 73 150 0.0 2.0 0.00 0.00 0.00 100 1010.2
20260510080006 73 150 0.0 2.0 0.00 0.00 0.00 100 1010.2
20260510075859 73 150 0.0 3.0 0.00 0.00 0.00 100 1010.2
20260510075658 73 150 0.0 3.0 0.00 0.00 0.00 100 1010.2
20260510075559 73 150 1.0 3.0 0.00 0.00 0.00 100 1010.2
20260510075459 73 150 0.0 3.0 0.00 0.00 0.00 100 1010.1
20260510075359 73 150 0.0 3.0 0.00 0.00 0.00 100 1010.1
20260510075257 73 150 0.0 3.0 0.00 0.00 0.00 100 1010.2
20260510074959 73 144 0.0 2.0 0.00 0.00 0.00 100 1010.2
20260510074857 73 144 0.0 2.0 0.00 0.00 0.00 100 1010.2
20260510074557 73 144 0.0 2.0 0.00 0.00 0.00 100 1010.2
20260510074457 73 144 0.0 2.0 0.00 0.00 0.00 100 1010.1
20260510074359 73 144 0.0 2.0 0.00 0.00 0.00 100 1010.2
20260510074259 73 144 0.0 2.0 0.00 0.00 0.00 100 1010.1
20260510074159 73 144 0.0 2.0 0.00 0.00 0.00 100 1010.1
20260510074057 73 144 1.0 2.0 0.00 0.00 0.00 100 1010.1
20260510074000 73 144 0.0 2.0 0.00 0.00 0.00 100 1010.1
20260510073858 73 144 0.0 2.0 0.00 0.00 0.00 100 1010.2
20260510073758 73 144 0.0 1.0 0.00 0.00 0.00 100 1010.2
20260510073657 73 144 0.0 1.0 0.00 0.00 0.00 100 1010.2
20260510073559 73 144 0.0 2.0 0.00 0.00 0.00 100 1010.2
20260510073459 73 144 0.0 2.0 0.00 0.00 0.00 100 1010.2
20260510073357 73 144 0.0 2.0 0.00 0.00 0.00 100 1010.3
20260510073257 73 144 0.0 2.0 0.00 0.00 0.00 100 1010.2
20260510073159 73 144 0.0 2.0 0.00 0.00 0.00 100 1010.3
20260510073059 74 144 0.0 2.0 0.00 0.00 0.00 100 1010.3
20260510072958 74 144 0.0 2.0 0.00 0.00 0.00 100 1010.3
20260510072759 74 144 1.0 2.0 0.00 0.00 0.00 100 1010.3
20260510072659 74 144 0.0 2.0 0.00 0.00 0.00 100 1010.3
20260510072600 74 144 1.0 2.0 0.00 0.00 0.00 100 1010.3
20260510072457 74 144 0.0 1.0 0.00 0.00 0.00 100 1010.3
20260510072359 74 144 0.0 1.0 0.00 0.00 0.00 100 1010.3
20260510072257 74 144 0.0 1.0 0.00 0.00 0.00 100 1010.3
20260510072158 74 144 0.0 1.0 0.00 0.00 0.00 100 1010.4
20260510072057 74 144 0.0 1.0 0.00 0.00 0.00 1 1010.4
20260510071959 74 144 0.0 1.0 0.00 0.00 0.00 1 1010.3
20260510071858 74 144 0.0 1.0 0.00 0.00 0.00 2 1010.4
20260510071657 74 144 0.0 1.0 0.00 0.00 0.00 2 1010.3
20260510071557 74 144 0.0 1.0 0.00 0.00 0.00 2 1010.4
20260510071359 74 144 0.0 1.0 0.00 0.00 0.00 2 1010.4
20260510071158 74 144 0.0 2.0 0.00 0.00 0.00 2 1010.4
20260510071059 74 144 0.0 2.0 0.00 0.00 0.00 2 1010.4
20260510071000 74 144 0.0 2.0 0.00 0.00 0.00 2 1010.4
20260510070856 74 144 0.0 2.0 0.00 0.00 0.00 2 1010.3
20260510070757 74 144 0.0 2.0 0.00 0.00 0.00 2 1010.4
20260510070658 74 144 0.0 2.0 0.00 0.00 0.00 2 1010.4
20260510070559 74 144 1.0 2.0 0.00 0.00 0.00 2 1010.4
20260510070457 74 144 0.0 2.0 0.00 0.00 0.00 2 1010.4
20260510070357 74 144 0.0 2.0 0.00 0.00 0.00 2 1010.4
20260510070259 74 144 0.0 2.0 0.00 0.00 0.00 2 1010.4
20260510070159 74 144 0.0 2.0 0.00 0.00 0.00 3 1010.4
20260510070057 74 144 0.0 2.0 0.00 0.00 0.00 3 1010.4
20260510065857 74 144 0.0 2.0 0.00 0.00 0.00 3 1010.4
20260510065500 74 144 0.0 4.0 0.00 0.00 0.00 3 1010.5
20260510065358 74 144 1.0 4.0 0.00 0.00 0.00 3 1010.5
20260510065255 74 144 0.0 4.0 0.00 0.00 0.00 3 1010.5
20260510065057 74 144 0.0 4.0 0.00 0.00 0.00 3 1010.4
20260510065000 74 144 1.0 4.0 0.00 0.00 0.00 3 1010.5
20260510064858 74 144 0.0 4.0 0.00 0.00 0.00 3 1010.5
20260510064658 74 140 0.0 3.0 0.00 0.00 0.00 4 1010.5
20260510064456 74 140 0.0 3.0 0.00 0.00 0.00 4 1010.4
20260510064356 74 140 0.0 3.0 0.00 0.00 0.00 4 1010.4
20260510064258 74 140 3.0 3.0 0.00 0.00 0.00 4 1010.4
20260510064158 74 140 1.0 2.0 0.00 0.00 0.00 4 1010.4
20260510064056 74 140 0.0 3.0 0.00 0.00 0.00 4 1010.4
20260510063959 74 140 0.0 3.0 0.00 0.00 0.00 4 1010.4
20260510063857 74 140 0.0 3.0 0.00 0.00 0.00 4 1010.4
20260510063758 74 140 0.0 3.0 0.00 0.00 0.00 4 1010.4
20260510063656 74 140 0.0 3.0 0.00 0.00 0.00 4 1010.4
20260510063458 75 140 0.0 3.0 0.00 0.00 0.00 4 1010.4
20260510063156 75 140 0.0 3.0 0.00 0.00 0.00 4 1010.4
20260510063057 75 140 0.0 3.0 0.00 0.00 0.00 4 1010.4
20260510062959 75 140 0.0 3.0 0.00 0.00 0.00 4 1010.5
20260510062856 75 140 1.0 3.0 0.00 0.00 0.00 4 1010.5
20260510062558 75 133 0.0 2.0 0.00 0.00 0.00 4 1010.5
20260510062456 75 133 0.0 2.0 0.00 0.00 0.00 4 1010.5
20260510062359 75 133 0.0 2.0 0.00 0.00 0.00 4 1010.5
20260510062256 75 133 0.0 2.0 0.00 0.00 0.00 4 1010.5
20260510062158 75 133 1.0 2.0 0.00 0.00 0.00 4 1010.5
20260510061957 75 133 0.0 1.0 0.00 0.00 0.00 5 1010.6
20260510061857 75 133 1.0 2.0 0.00 0.00 0.00 6 1010.6
20260510061758 75 133 0.0 2.0 0.00 0.00 0.00 6 1010.6
20260510061658 75 133 0.0 2.0 0.00 0.00 0.00 6 1010.6
20260510061556 75 133 0.0 2.0 0.00 0.00 0.00 6 1010.5
20260510061458 75 133 0.0 2.0 0.00 0.00 0.00 5 1010.6
20260510061358 75 133 0.0 2.0 0.00 0.00 0.00 5 1010.6
20260510061257 75 133 1.0 2.0 0.00 0.00 0.00 6 1010.6
20260510061058 75 133 0.0 3.0 0.00 0.00 0.00 6 1010.6
20260510060959 75 133 1.0 3.0 0.00 0.00 0.00 6 1010.6
20260510060858 75 133 1.0 3.0 0.00 0.00 0.00 7 1010.7
20260510060656 75 133 1.0 3.0 0.00 0.00 0.00 7 1010.6
20260510060558 75 133 0.0 3.0 0.00 0.00 0.00 7 1010.7
20260510060458 75 133 0.0 3.0 0.00 0.00 0.00 7 1010.7
20260510060356 75 133 0.0 3.0 0.00 0.00 0.00 7 1010.6
20260510060158 75 133 0.0 3.0 0.00 0.00 0.00 8 1010.6
20260510060057 75 133 0.0 3.0 0.00 0.00 0.00 8 1010.7
20260510055857 75 133 0.0 3.0 0.00 0.00 0.00 8 1010.7
20260510055659 75 133 1.0 3.0 0.00 0.00 0.00 9 1010.7
20260510055559 75 124 0.0 2.0 0.00 0.00 0.00 9 1010.7
20260510055458 75 124 0.0 2.0 0.00 0.00 0.00 9 1010.7
20260510055259 75 124 1.0 2.0 0.00 0.00 0.00 9 1010.8
20260510055159 75 124 1.0 2.0 0.00 0.00 0.00 11 1010.8
20260510055057 76 124 0.0 1.0 0.00 0.00 0.00 11 1010.8
20260510055001 76 124 0.0 1.0 0.00 0.00 0.00 11 1010.8
20260510054859 76 124 0.0 3.0 0.00 0.00 0.00 11 1010.8
20260510054759 76 124 0.0 3.0 0.00 0.00 0.00 11 1010.9
20260510054659 76 124 1.0 3.0 0.00 0.00 0.00 11 1010.8
20260510054558 76 124 0.0 3.0 0.00 0.00 0.00 11 1010.8
20260510054459 76 124 0.0 3.0 0.00 0.00 0.00 12 1010.8
20260510054359 76 124 0.0 3.0 0.00 0.00 0.00 12 1010.9
20260510054256 76 124 0.0 3.0 0.00 0.00 0.00 13 1010.9
20260510054157 76 124 0.0 3.0 0.00 0.00 0.00 13 1010.9
20260510053757 76 124 0.0 2.0 0.00 0.00 0.00 14 1010.8
20260510053658 76 124 1.0 2.0 0.00 0.00 0.00 15 1010.9
20260510053559 76 124 0.0 2.0 0.00 0.00 0.00 15 1010.9
20260510053456 76 124 1.0 1.0 0.00 0.00 0.00 17 1010.9
20260510053357 76 124 1.0 1.0 0.00 0.00 0.00 17 1010.9
20260510053258 76 124 0.0 1.0 0.00 0.00 0.00 17 1010.9
20260510053159 76 124 0.0 1.0 0.00 0.00 0.00 17 1010.9
20260510053057 76 124 0.0 1.0 0.00 0.00 0.00 17 1010.9
20260510052959 76 124 0.0 2.0 0.00 0.00 0.00 17 1010.8
20260510052857 76 124 0.0 2.0 0.00 0.00 0.00 16 1010.8
20260510052759 76 124 0.0 2.0 0.00 0.00 0.00 17 1010.7
20260510052659 76 124 0.0 2.0 0.00 0.00 0.00 17 1010.7
20260510052557 76 124 0.0 2.0 0.00 0.00 0.00 17 1010.8
20260510052457 76 124 0.0 2.0 0.00 0.00 0.00 17 1010.8
20260510052259 76 124 0.0 2.0 0.00 0.00 0.00 17 1010.8
20260510052157 76 124 1.0 2.0 0.00 0.00 0.00 19 1010.9
20260510052000 76 124 1.0 3.0 0.00 0.00 0.00 18 1010.9
20260510051757 76 124 0.0 3.0 0.00 0.00 0.00 19 1010.8
20260510051559 76 124 0.0 3.0 0.00 0.00 0.00 19 1010.8
20260510051357 76 124 0.0 3.0 0.00 0.00 0.00 19 1010.8
20260510051257 76 124 0.0 3.0 0.00 0.00 0.00 19 1010.8
20260510051159 76 124 2.0 3.0 0.00 0.00 0.00 19 1010.8
20260510051059 76 124 1.0 2.0 0.00 0.00 0.00 20 1010.9
20260510051001 76 124 2.0 2.0 0.00 0.00 0.00 20 1010.9
20260510050656 76 124 0.0 2.0 0.00 0.00 0.00 21 1010.9
20260510050457 77 124 0.0 2.0 0.00 0.00 0.00 23 1010.9
20260510050359 77 124 0.0 2.0 0.00 0.00 0.00 23 1011.0
20260510050259 77 124 2.0 2.0 0.00 0.00 0.00 24 1011.1
20260510050157 77 124 1.0 2.0 0.00 0.00 0.00 25 1011.1
20260510050056 77 124 0.0 2.0 0.00 0.00 0.00 25 1011.2
20260510050005 77 124 0.0 2.0 0.00 0.00 0.00 26 1011.2
20260510045858 77 124 0.0 2.0 0.00 0.00 0.00 27 1011.2
20260510045759 77 124 0.0 2.0 0.00 0.00 0.00 27 1011.2
20260510045659 77 124 1.0 2.0 0.00 0.00 0.00 27 1011.2
20260510045357 77 124 1.0 1.0 0.00 0.00 0.00 30 1011.2
20260510045257 77 124 1.0 1.0 0.00 0.00 0.00 30 1011.2
20260510045157 77 124 0.0 1.0 0.00 0.00 0.00 30 1011.3
20260510045056 77 124 0.0 1.0 0.00 0.00 0.00 31 1011.3
20260510045000 77 124 0.0 1.0 0.00 0.00 0.00 31 1011.3
20260510044856 77 124 0.0 0.0 0.00 0.00 0.00 31 1011.3
20260510044757 77 124 0.0 1.0 0.00 0.00 0.00 32 1011.3
20260510044559 77 124 0.0 1.0 0.00 0.00 0.00 33 1011.3
20260510044457 77 124 0.0 1.0 0.00 0.00 0.00 33 1011.3
20260510044358 77 124 0.0 1.0 0.00 0.00 0.00 33 1011.4
20260510044259 77 124 0.0 1.0 0.00 0.00 0.00 34 1011.3
20260510043959 77 124 1.0 1.0 0.00 0.00 0.00 35 1011.4
20260510043859 77 124 1.0 1.0 0.00 0.00 0.00 36 1011.5
20260510043759 77 124 0.0 2.0 0.00 0.00 0.00 36 1011.4
20260510043657 77 124 0.0 2.0 0.00 0.00 0.00 36 1011.4
20260510043559 77 124 0.0 2.0 0.00 0.00 0.00 37 1011.3
20260510043359 77 124 0.0 2.0 0.00 0.00 0.00 38 1011.3
20260510043258 77 124 0.0 2.0 0.00 0.00 0.00 38 1011.3
20260510043159 77 124 0.0 2.0 0.00 0.00 0.00 38 1011.3
20260510043057 77 124 0.0 3.0 0.00 0.00 0.00 39 1011.2
20260510042959 78 124 0.0 3.0 0.00 0.00 0.00 40 1011.2
20260510042856 78 157 0.0 3.0 0.00 0.00 0.00 40 1011.3
20260510042758 78 157 0.0 3.0 0.00 0.00 0.00 40 1011.3
20260510042658 78 157 0.0 3.0 0.00 0.00 0.00 41 1011.3
20260510042457 78 157 0.0 3.0 0.00 0.00 0.00 41 1011.3
20260510042257 78 157 0.0 3.0 0.00 0.00 0.00 42 1011.2
20260510041859 78 162 0.0 1.0 0.00 0.00 0.00 43 1011.3
20260510041759 78 162 0.0 1.0 0.00 0.00 0.00 43 1011.2
20260510041559 78 162 0.0 1.0 0.00 0.00 0.00 43 1011.2
20260510041459 78 162 0.0 2.0 0.00 0.00 0.00 43 1011.1
20260510041357 78 162 0.0 2.0 0.00 0.00 0.00 44 1011.1
20260510041258 78 162 0.0 2.0 0.00 0.00 0.00 44 1011.1
20260510041159 78 162 0.0 2.0 0.00 0.00 0.00 44 1011.1
20260510040958 78 162 0.0 2.0 0.00 0.00 0.00 45 1011.0
20260510040856 78 162 0.0 2.0 0.00 0.00 0.00 45 1011.0
20260510040757 78 162 0.0 2.0 0.00 0.00 0.00 45 1011.0
20260510040659 78 162 0.0 2.0 0.00 0.00 0.00 45 1011.1
20260510040557 78 162 0.0 2.0 0.00 0.00 0.00 45 1011.1
20260510040459 78 162 0.0 2.0 0.00 0.00 0.00 45 1011.1
20260510040359 78 162 1.0 2.0 0.00 0.00 0.00 46 1011.1
20260510040258 78 162 0.0 2.0 0.00 0.00 0.00 46 1011.1
20260510040157 78 162 0.0 2.0 0.00 0.00 0.00 46 1011.1
20260510040001 78 162 0.0 2.0 0.00 0.00 0.00 47 1011.1
20260510035857 79 162 2.0 2.0 0.00 0.00 0.00 47 1011.1
20260510035759 79 162 0.0 1.0 0.00 0.00 0.00 47 1011.1
20260510035657 79 162 0.0 1.0 0.00 0.00 0.00 47 1011.1
20260510035459 79 162 0.0 1.0 0.00 0.00 0.00 49 1011.1
20260510035359 79 162 0.0 1.0 0.00 0.00 0.00 48 1011.2
20260510035159 79 162 1.0 2.0 0.00 0.00 0.00 49 1011.2
20260510035058 79 162 0.0 2.0 0.00 0.00 0.00 49 1011.2
20260510034959 79 162 0.0 2.0 0.00 0.00 0.00 49 1011.2
20260510034858 79 162 0.0 2.0 0.00 0.00 0.00 49 1011.2
20260510034757 79 162 0.0 2.0 0.00 0.00 0.00 50 1011.2
20260510034658 79 162 1.0 2.0 0.00 0.00 0.00 50 1011.2
20260510034557 79 162 0.0 2.0 0.00 0.00 0.00 51 1011.2
20260510034400 79 162 0.0 2.0 0.00 0.00 0.00 52 1011.3
20260510034159 79 162 0.0 2.0 0.00 0.00 0.00 52 1011.2
20260510034058 79 162 0.0 2.0 0.00 0.00 0.00 53 1011.2
20260510033959 79 162 0.0 2.0 0.00 0.00 0.00 54 1011.3
20260510033857 80 162 0.0 2.0 0.00 0.00 0.00 53 1011.2
20260510033759 80 162 0.0 3.0 0.00 0.00 0.00 53 1011.2
20260510033659 80 162 1.0 4.0 0.00 0.00 0.00 54 1011.2
20260510033557 80 162 0.0 4.0 0.00 0.00 0.00 54 1011.2
20260510033459 80 162 0.0 4.0 0.00 0.00 0.00 54 1011.2
20260510033359 80 162 0.0 4.0 0.00 0.00 0.00 55 1011.2
20260510033159 80 162 0.0 4.0 0.00 0.00 0.00 55 1011.1
20260510033058 80 162 1.0 4.0 0.00 0.00 0.00 56 1011.2
20260510032959 80 161 1.0 4.0 0.00 0.00 0.00 58 1011.2
20260510032858 80 146 2.0 4.0 0.00 0.00 0.00 58 1011.2
20260510032757 80 144 1.0 4.0 0.00 0.00 0.00 58 1011.3
20260510032658 80 144 1.0 4.0 0.00 0.00 0.00 59 1011.2
20260510032557 80 144 0.0 4.0 0.00 0.00 0.00 60 1011.3
20260510032457 80 144 1.0 3.0 0.00 0.00 0.00 61 1011.3
20260510032357 80 144 3.0 3.0 0.00 0.00 0.00 62 1011.3
20260510032256 80 144 0.0 3.0 0.00 0.00 0.00 62 1011.3
20260510032159 80 144 1.0 3.0 0.00 0.00 0.00 62 1011.4
20260510032057 80 144 0.0 3.0 0.00 0.00 0.00 63 1011.3
20260510031958 80 144 1.0 3.0 0.00 0.00 0.00 63 1011.3
20260510031858 80 144 1.0 3.0 0.00 0.00 0.00 64 1011.3
20260510031759 80 144 0.0 3.0 0.00 0.00 0.00 64 1011.3
20260510031559 80 144 1.0 4.0 0.00 0.00 0.00 64 1011.3
20260510031457 80 204 0.0 4.0 0.00 0.00 0.00 64 1011.3
20260510031359 80 204 0.0 4.0 0.00 0.00 0.00 65 1011.3
20260510031258 80 205 1.0 4.0 0.00 0.00 0.00 65 1011.3
20260510031159 80 205 0.0 4.0 0.00 0.00 0.00 65 1011.3
20260510031056 80 205 1.0 4.0 0.00 0.00 0.00 65 1011.3
20260510030959 80 205 0.0 4.0 0.00 0.00 0.00 65 1011.2
20260510030857 80 205 0.0 4.0 0.00 0.00 0.00 65 1011.2
20260510030757 80 202 2.0 4.0 0.00 0.00 0.00 65 1011.3
20260510030659 80 202 1.0 4.0 0.00 0.00 0.00 65 1011.3
20260510030557 80 202 0.0 4.0 0.00 0.00 0.00 65 1011.2
20260510030459 80 202 1.0 4.0 0.00 0.00 0.00 66 1011.2
20260510030359 80 203 1.0 4.0 0.00 0.00 0.00 66 1011.1
20260510030256 80 204 0.0 3.0 0.00 0.00 0.00 66 1011.1
20260510030159 80 204 1.0 3.0 0.00 0.00 0.00 66 1011.1
20260510030057 80 204 1.0 3.0 0.00 0.00 0.00 66 1011.1
20260510030005 80 204 1.0 3.0 0.00 0.00 0.00 66 1011.1
20260510025758 80 125 0.0 3.0 0.00 0.00 0.00 66 1011.0
20260510025658 80 125 0.0 3.0 0.00 0.00 0.00 66 1011.0
20260510025559 80 125 1.0 3.0 0.00 0.00 0.00 66 1011.0
20260510025359 80 123 2.0 3.0 0.00 0.00 0.00 66 1011.0
20260510025258 80 123 1.0 3.0 0.00 0.00 0.00 66 1011.0
20260510025056 80 122 0.0 3.0 0.00 0.00 0.00 66 1010.9
20260510024958 80 157 1.0 3.0 0.00 0.00 0.00 66 1010.9
20260510024857 80 157 0.0 3.0 0.00 0.00 0.00 66 1010.8
20260510024759 80 157 0.0 3.0 0.00 0.00 0.00 67 1010.9
20260510024656 80 157 0.0 3.0 0.00 0.00 0.00 66 1010.8
20260510024557 80 157 0.0 3.0 0.00 0.00 0.00 66 1010.7
20260510024459 80 157 2.0 3.0 0.00 0.00 0.00 67 1010.7
20260510024359 80 157 0.0 3.0 0.00 0.00 0.00 67 1010.7
20260510024257 80 159 0.0 2.0 0.00 0.00 0.00 67 1010.6
20260510024059 80 159 0.0 2.0 0.00 0.00 0.00 66 1010.6
20260510024001 80 159 0.0 2.0 0.00 0.00 0.00 66 1010.5
20260510023757 80 159 0.0 3.0 0.00 0.00 0.00 66 1010.4
20260510023659 80 159 0.0 3.0 0.00 0.00 0.00 66 1010.4
20260510023559 80 159 1.0 3.0 0.00 0.00 0.00 66 1010.3
20260510023457 80 159 1.0 3.0 0.00 0.00 0.00 66 1010.3
20260510023357 81 159 1.0 3.0 0.00 0.00 0.00 66 1010.3
20260510023258 81 159 0.0 3.0 0.00 0.00 0.00 66 1010.2
20260510023159 81 159 0.0 3.0 0.00 0.00 0.00 66 1010.2
20260510023059 81 159 0.0 3.0 0.00 0.00 0.00 66 1010.2
20260510022958 81 159 1.0 3.0 0.00 0.00 0.00 66 1010.2
20260510022856 81 159 0.0 3.0 0.00 0.00 0.00 66 1010.2
20260510022658 81 159 0.0 3.0 0.00 0.00 0.00 65 1010.2
20260510022557 81 159 0.0 3.0 0.00 0.00 0.00 65 1010.1
20260510022457 81 159 1.0 3.0 0.00 0.00 0.00 65 1010.1
20260510022359 81 159 1.0 3.0 0.00 0.00 0.00 65 1010.1
20260510022258 81 159 0.0 5.0 0.00 0.00 0.00 65 1010.0
20260510022157 81 159 0.0 5.0 0.00 0.00 0.00 65 1009.9
20260510022056 81 159 0.0 5.0 0.00 0.00 0.00 65 1009.8
20260510022000 81 159 0.0 5.0 0.00 0.00 0.00 65 1009.8
20260510021859 81 159 0.0 5.0 0.00 0.00 0.00 65 1009.8
20260510021757 81 159 0.0 5.0 0.00 0.00 0.00 65 1009.8
20260510021657 81 159 0.0 5.0 0.00 0.00 0.00 65 1009.7
20260510021559 81 159 0.0 5.0 0.00 0.00 0.00 65 1009.7
20260510021500 81 159 2.0 5.0 0.00 0.00 0.00 65 1009.7
20260510021358 81 191 1.0 2.0 0.00 0.00 0.00 65 1009.7
20260510021257 81 191 2.0 2.0 0.00 0.00 0.00 64 1009.6
20260510021157 81 194 1.0 2.0 0.00 0.00 0.00 64 1009.6
20260510021059 81 194 0.0 2.0 0.00 0.00 0.00 64 1009.7
20260510020958 81 194 0.0 2.0 0.00 0.00 0.00 64 1009.7
20260510020658 81 194 1.0 4.0 0.00 0.00 0.00 64 1009.7
20260510020559 81 194 0.0 4.0 0.00 0.00 0.00 64 1009.7
20260510020457 81 194 1.0 4.0 0.00 0.00 0.00 64 1009.6
20260510020357 81 194 0.0 4.0 0.00 0.00 0.00 64 1009.6
20260510020259 81 194 1.0 4.0 0.00 0.00 0.00 64 1009.6
20260510020159 81 194 0.0 4.0 0.00 0.00 0.00 64 1009.6
20260510020057 81 194 1.0 4.0 0.00 0.00 0.00 64 1009.5
20260510015958 81 193 0.0 3.0 0.00 0.00 0.00 64 1009.5
20260510015858 81 193 0.0 3.0 0.00 0.00 0.00 64 1009.4
20260510015759 82 193 0.0 3.0 0.00 0.00 0.00 64 1009.3
20260510015656 82 193 1.0 3.0 0.00 0.00 0.00 64 1009.3
20260510015459 82 196 2.0 3.0 0.00 0.00 0.00 64 1009.2
20260510015357 82 196 0.0 3.0 0.00 0.00 0.00 64 1009.2
20260510015257 82 196 0.0 3.0 0.00 0.00 0.00 64 1009.2
20260510015157 82 196 1.0 3.0 0.00 0.00 0.00 64 1009.2
20260510015000 82 196 2.0 3.0 0.00 0.00 0.00 63 1009.1
20260510014856 82 197 1.0 2.0 0.00 0.00 0.00 64 1009.1
20260510014757 82 197 0.0 2.0 0.00 0.00 0.00 64 1009.1
20260510014400 82 197 0.0 4.0 0.00 0.00 0.00 63 1009.0
20260510014258 82 197 0.0 4.0 0.00 0.00 0.00 63 1008.9
20260510014157 82 197 1.0 4.0 0.00 0.00 0.00 63 1008.9
20260510013958 82 197 0.0 5.0 0.00 0.00 0.00 63 1008.9
20260510013859 82 197 0.0 5.0 0.00 0.00 0.00 63 1008.9
20260510013759 82 197 0.0 5.0 0.00 0.00 0.00 63 1008.8
20260510013656 82 197 0.0 5.0 0.00 0.00 0.00 63 1008.8
20260510013557 82 197 0.0 5.0 0.00 0.00 0.00 63 1008.8
20260510013359 82 205 1.0 5.0 0.00 0.00 0.00 63 1008.8
20260510013257 82 205 1.0 5.0 0.00 0.00 0.00 63 1008.8
20260510013157 82 226 1.0 4.0 0.00 0.00 0.00 63 1008.7
20260510013059 82 294 0.0 3.0 0.00 0.00 0.00 63 1008.7
20260510013000 82 294 0.0 3.0 0.00 0.00 0.00 63 1008.7
20260510012658 82 296 2.0 4.0 0.00 0.00 0.00 63 1008.6
20260510012559 82 298 0.0 4.0 0.00 0.00 0.00 63 1008.6
20260510012457 82 298 0.0 4.0 0.00 0.00 0.00 63 1008.6
20260510012357 82 298 1.0 4.0 0.00 0.00 0.00 63 1008.5
20260510012258 82 302 0.0 4.0 0.00 0.00 0.00 63 1008.5
20260510012159 82 302 1.0 4.0 0.00 0.00 0.00 63 1008.4
20260510012058 82 302 2.0 4.0 0.00 0.00 0.00 64 1008.4
20260510011958 82 302 0.0 4.0 0.00 0.00 0.00 64 1008.3
20260510011858 82 302 3.0 4.0 0.00 0.00 0.00 64 1008.3
20260510011759 82 316 0.0 2.0 0.00 0.00 0.00 64 1008.3
20260510011658 82 316 0.0 2.0 0.00 0.00 0.00 64 1008.3
20260510011557 82 316 0.0 2.0 0.00 0.00 0.00 64 1008.3
20260510011457 82 316 0.0 2.0 0.00 0.00 0.00 64 1008.4
20260510011257 82 316 0.0 2.0 0.00 0.00 0.00 64 1008.4
20260510011157 82 316 0.0 2.0 0.00 0.00 0.00 64 1008.4
20260510011058 82 316 1.0 2.0 0.00 0.00 0.00 63 1008.3
20260510011000 82 316 0.0 0.0 0.00 0.00 0.00 63 1008.3
20260510010859 82 316 0.0 0.0 0.00 0.00 0.00 63 1008.2
20260510010757 82 316 0.0 1.0 0.00 0.00 0.00 63 1008.1
20260510010657 82 316 0.0 1.0 0.00 0.00 0.00 63 1008.1
20260510010559 82 316 0.0 1.0 0.00 0.00 0.00 63 1008.2
20260510010459 82 316 0.0 1.0 0.00 0.00 0.00 63 1008.1
20260510010359 82 316 0.0 1.0 0.00 0.00 0.00 63 1008.1
20260510010257 82 316 0.0 1.0 0.00 0.00 0.00 62 1008.0
20260510010159 82 316 0.0 1.0 0.00 0.00 0.00 62 1007.9
20260510010004 83 316 0.0 1.0 0.00 0.00 0.00 62 1007.9
20260510005857 83 316 1.0 1.0 0.00 0.00 0.00 62 1007.8
20260510005759 83 316 0.0 1.0 0.00 0.00 0.00 62 1007.8
20260510005659 83 316 0.0 1.0 0.00 0.00 0.00 62 1007.7
20260510005557 83 316 0.0 1.0 0.00 0.00 0.00 62 1007.6
20260510005357 83 316 0.0 1.0 0.00 0.00 0.00 62 1007.7
20260510005258 83 316 0.0 1.0 0.00 0.00 0.00 61 1007.7
20260510005159 83 316 0.0 1.0 0.00 0.00 0.00 61 1007.7
20260510005057 83 316 0.0 1.0 0.00 0.00 0.00 61 1007.8
20260510005000 83 316 0.0 1.0 0.00 0.00 0.00 61 1007.8
20260510004858 83 316 0.0 1.0 0.00 0.00 0.00 61 1007.8
20260510004759 84 316 0.0 1.0 0.00 0.00 0.00 61 1007.8
20260510004656 84 316 1.0 1.0 0.00 0.00 0.00 60 1007.9
20260510004559 84 316 0.0 1.0 0.00 0.00 0.00 60 1007.9
20260510004459 84 316 1.0 1.0 0.00 0.00 0.00 60 1008.0
20260510004357 84 316 1.0 1.0 0.00 0.00 0.00 60 1008.1
20260510004257 84 316 0.0 3.0 0.00 0.00 0.00 60 1008.0
20260510004157 84 316 0.0 7.0 0.00 0.00 0.00 59 1008.0
20260510004056 85 316 0.0 7.0 0.00 0.00 0.00 59 1007.9
20260510004000 85 316 1.0 7.0 0.00 0.00 0.00 59 1008.0
20260510003857 85 316 0.0 7.0 0.00 0.00 0.00 59 1007.9
20260510003757 85 316 1.0 7.0 0.00 0.00 0.00 59 1007.9
20260510003659 86 316 1.0 7.0 0.00 0.00 0.00 59 1008.0
20260510003559 86 316 0.0 7.0 0.00 0.00 0.00 59 1008.0
20260510003457 86 316 1.0 7.0 0.00 0.00 0.00 60 1008.1
20260510003359 86 311 3.0 7.0 0.00 0.00 0.00 61 1008.0
20260510003157 86 177 0.0 0.0 0.00 0.00 0.00 62 1008.0
20260510003056 86 177 0.0 0.0 0.00 0.00 0.00 62 1008.0
20260510003001 87 177 0.0 0.0 0.00 0.00 0.00 61 1007.9
20260510002859 87 177 0.0 0.0 0.00 0.00 0.00 61 1007.9
20260510002759 87 177 0.0 0.0 0.00 0.00 0.00 62 1007.9
20260510002657 87 177 0.0 0.0 0.00 0.00 0.00 62 1007.8
20260510002557 87 177 0.0 0.0 0.00 0.00 0.00 62 1007.8
20260510002459 87 177 0.0 1.0 0.00 0.00 0.00 61 1007.8
20260510002357 87 177 0.0 1.0 0.00 0.00 0.00 61 1007.8
20260510002157 87 177 0.0 1.0 0.00 0.00 0.00 61 1007.8
20260510002059 87 177 0.0 1.0 0.00 0.00 0.00 61 1007.8
20260510002000 87 177 0.0 1.0 0.00 0.00 0.00 61 1007.8
20260510001856 87 177 0.0 1.0 0.00 0.00 0.00 61 1007.8
20260510001759 87 177 0.0 1.0 0.00 0.00 0.00 61 1007.8
20260510001659 87 177 0.0 1.0 0.00 0.00 0.00 61 1007.8
20260510001559 87 177 0.0 0.0 0.00 0.00 0.00 61 1007.7
20260510001456 87 177 0.0 1.0 0.00 0.00 0.00 61 1007.7
20260510001357 87 177 0.0 1.0 0.00 0.00 0.00 60 1007.6
20260510001258 87 177 0.0 1.0 0.00 0.00 0.00 61 1007.6
20260510001159 87 177 0.0 1.0 0.00 0.00 0.00 60 1007.6
20260510001058 87 177 0.0 1.0 0.00 0.00 0.00 60 1007.6
20260510000958 87 177 0.0 1.0 0.00 0.00 0.00 60 1007.6
20260510000858 87 177 0.0 1.0 0.00 0.00 0.00 60 1007.6
20260510000659 87 177 0.0 1.0 0.00 0.00 0.00 60 1007.6
20260510000459 87 177 0.0 1.0 0.00 0.00 0.00 60 1007.6
20260510000359 87 177 0.0 1.0 0.00 0.00 0.00 60 1007.6
20260510000256 87 177 0.0 1.0 0.00 0.00 0.00 60 1007.7
20260510000157 87 177 0.0 1.0 0.00 0.00 0.00 60 1007.7
20260510000058 87 177 0.0 1.0 0.00 0.00 0.00 60 1007.9
20260509235959 87 177 0.0 1.0 0.00 0.00 0.00 60 1007.8
20260509235901 88 177 0.0 2.0 0.00 0.00 0.00 60 1007.8
20260509235657 88 177 0.0 2.0 0.00 0.00 0.00 60 1007.6
20260509235459 88 177 0.0 2.0 0.00 0.00 0.00 59 1007.3
20260509235358 88 177 0.0 2.0 0.00 0.00 0.00 59 1007.2
20260509235158 88 177 0.0 2.0 0.00 0.00 0.00 59 1007.1
20260509235058 88 177 1.0 2.0 0.00 0.00 0.00 59 1007.2
20260509234959 88 185 0.0 2.0 0.00 0.00 0.00 59 1007.2
20260509234858 88 185 0.0 2.0 0.00 0.00 0.00 59 1007.3
20260509234759 88 185 1.0 2.0 0.00 0.00 0.00 59 1007.3
20260509234700 88 185 0.0 1.0 0.00 0.00 0.00 59 1007.3
20260509234558 88 185 0.0 1.0 0.00 0.00 0.00 59 1007.5
20260509234458 88 185 0.0 1.0 0.00 0.00 0.00 59 1007.5
20260509234257 88 185 0.0 1.0 0.00 0.00 0.00 58 1007.5
20260509234158 88 185 0.0 2.0 0.00 0.00 0.00 59 1007.5
20260509233959 88 185 0.0 3.0 0.00 0.00 0.00 58 1007.5
20260509233859 88 185 0.0 3.0 0.00 0.00 0.00 59 1007.5
20260509233758 88 185 0.0 3.0 0.00 0.00 0.00 58 1007.4
20260509233657 88 185 0.0 3.0 0.00 0.00 0.00 58 1007.3
20260509233458 88 185 0.0 3.0 0.00 0.00 0.00 58 1007.2
20260509233258 88 185 2.0 3.0 0.00 0.00 0.00 58 1007.2
20260509233158 88 185 0.0 1.0 0.00 0.00 0.00 58 1007.1
20260509233058 88 185 0.0 2.0 0.00 0.00 0.00 58 1007.2
20260509232858 88 185 0.0 3.0 0.00 0.00 0.00 57 1007.2
20260509232759 89 185 1.0 3.0 0.00 0.00 0.00 57 1007.2
20260509232657 89 185 0.0 3.0 0.00 0.00 0.00 58 1007.3
20260509232558 89 185 0.0 3.0 0.00 0.00 0.00 58 1007.2
20260509232458 89 185 1.0 3.0 0.00 0.00 0.00 57 1007.2
20260509232358 89 185 0.0 3.0 0.00 0.00 0.00 57 1007.2
20260509232258 89 185 1.0 3.0 0.00 0.00 0.00 57 1007.2
20260509232158 89 185 0.0 3.0 0.00 0.00 0.00 57 1007.2
20260509232058 89 185 0.0 3.0 0.00 0.00 0.00 57 1007.2
20260509232000 89 185 1.0 3.0 0.00 0.00 0.00 57 1007.3
20260509231858 89 185 0.0 3.0 0.00 0.00 0.00 57 1007.3
20260509231758 89 185 1.0 3.0 0.00 0.00 0.00 57 1007.3
20260509231658 90 185 0.0 3.0 0.00 0.00 0.00 57 1007.3
20260509231558 90 185 0.0 3.0 0.00 0.00 0.00 57 1007.3
20260509231458 90 185 0.0 3.0 0.00 0.00 0.00 57 1007.3
20260509231359 90 185 1.0 3.0 0.00 0.00 0.00 57 1007.3
20260509231301 90 170 0.0 2.0 0.00 0.00 0.00 57 1007.3
20260509231159 90 170 0.0 2.0 0.00 0.00 0.00 57 1007.3
20260509231058 90 170 0.0 2.0 0.00 0.00 0.00 57 1007.3
20260509231002 90 170 0.0 2.0 0.00 0.00 0.00 57 1007.3
20260509230858 90 170 0.0 2.0 0.00 0.00 0.00 57 1007.3
20260509230758 90 170 1.0 3.0 0.00 0.00 0.00 56 1007.3
20260509230658 91 170 0.0 3.0 0.00 0.00 0.00 56 1007.3
20260509230458 91 170 1.0 3.0 0.00 0.00 0.00 55 1007.3
20260509230358 91 170 0.0 3.0 0.00 0.00 0.00 56 1007.3
20260509230258 91 170 0.0 3.0 0.00 0.00 0.00 55 1007.3
20260509230158 91 170 1.0 3.0 0.00 0.00 0.00 55 1007.2
20260509225856 91 170 1.0 2.0 0.00 0.00 0.00 55 1007.1
20260509225757 92 170 0.0 2.0 0.00 0.00 0.00 55 1007.1
20260509225658 92 170 2.0 3.0 0.00 0.00 0.00 55 1007.1
20260509225558 92 170 0.0 3.0 0.00 0.00 0.00 55 1007.1
20260509225359 92 170 0.0 3.0 0.00 0.00 0.00 55 1007.0
20260509225256 92 170 1.0 3.0 0.00 0.00 0.00 55 1007.0
20260509225159 92 170 0.0 3.0 0.00 0.00 0.00 55 1007.0
20260509224959 92 170 0.0 3.0 0.00 0.00 0.00 55 1007.0
20260509224856 92 170 2.0 3.0 0.00 0.00 0.00 55 1007.0
20260509224759 92 170 0.0 3.0 0.00 0.00 0.00 55 1007.0
20260509224557 92 170 1.0 3.0 0.00 0.00 0.00 55 1007.0
20260509224459 92 170 0.0 3.0 0.00 0.00 0.00 55 1007.0
20260509224359 92 170 0.0 3.0 0.00 0.00 0.00 55 1007.0
20260509224258 92 170 0.0 3.0 0.00 0.00 0.00 55 1007.0
20260509224057 92 170 1.0 3.0 0.00 0.00 0.00 55 1007.0
20260509223858 92 170 1.0 3.0 0.00 0.00 0.00 54 1007.0
20260509223758 92 170 1.0 3.0 0.00 0.00 0.00 54 1007.0
20260509223559 92 170 2.0 4.0 0.00 0.00 0.00 54 1007.0
20260509223358 92 169 1.0 4.0 0.00 0.00 0.00 53 1007.0
20260509223158 92 170 2.0 4.0 0.00 0.00 0.00 54 1006.9
20260509223058 92 170 1.0 4.0 0.00 0.00 0.00 54 1006.9
20260509223001 92 170 1.0 4.0 0.00 0.00 0.00 54 1006.9
20260509222857 92 170 1.0 6.0 0.00 0.00 0.00 54 1006.9
20260509222757 92 221 0.0 6.0 0.00 0.00 0.00 54 1006.9
20260509222658 92 221 0.0 6.0 0.00 0.00 0.00 53 1006.8
20260509222559 92 221 1.0 6.0 0.00 0.00 0.00 53 1006.8
20260509222459 92 221 0.0 6.0 0.00 0.00 0.00 53 1006.8
20260509222358 92 221 0.0 6.0 0.00 0.00 0.00 53 1006.8
20260509222256 92 221 2.0 6.0 0.00 0.00 0.00 53 1006.9
20260509222158 92 185 2.0 6.0 0.00 0.00 0.00 53 1006.9
20260509221958 93 158 1.0 4.0 0.00 0.00 0.00 53 1006.9
20260509221856 93 158 2.0 4.0 0.00 0.00 0.00 53 1006.9
20260509221756 93 158 1.0 4.0 0.00 0.00 0.00 53 1006.9
20260509221559 93 157 0.0 4.0 0.00 0.00 0.00 53 1006.8
20260509221458 93 157 3.0 4.0 0.00 0.00 0.00 54 1006.8
20260509221357 93 307 1.0 4.0 0.00 0.00 0.00 53 1006.9
20260509221256 93 307 2.0 4.0 0.00 0.00 0.00 53 1006.8
20260509221159 93 307 2.0 4.0 0.00 0.00 0.00 53 1006.8
20260509221056 93 308 1.0 4.0 0.00 0.00 0.00 52 1006.9